2016 Cux-Wetter.de -Die Nutzung der Wetterdaten nur mit ausdrcklicher Genehmigung
Wetterdaten: Donnerstag, 31.05.2018
Datum Zeit Temp. A. Feuchte A. Luftdruck Regen Wind Richtung Richtung Sonnenschein Solar Taupunkt Windchill Windben
31.05.2018 00:00 20,4 C 95 % 1014,0 hPa 0,0 l/m 0,4 km/h (0 Bft) S-SO 158 0 min 0 W/m 19,6 C 20,4 C 3,2 km/h (1 Bft)
31.05.2018 00:03 20,3 C 95 % 1014,0 hPa 0,0 l/m 0,0 km/h (0 Bft) S-SO 158 0 min 0 W/m 19,5 C 20,3 C 0,0 km/h (0 Bft)
31.05.2018 00:06 20,2 C 95 % 1014,0 hPa 0,0 l/m 0,5 km/h (0 Bft) S-SO 158 0 min 0 W/m 19,4 C 20,2 C 1,6 km/h (1 Bft)
31.05.2018 00:09 20,3 C 96 % 1014,0 hPa 0,0 l/m 0,3 km/h (0 Bft) S-SO 158 0 min 0 W/m 19,6 C 20,3 C 1,6 km/h (1 Bft)
31.05.2018 00:12 20,3 C 95 % 1014,0 hPa 0,0 l/m 0,0 km/h (0 Bft) S-SO 158 0 min 0 W/m 19,5 C 20,3 C 0,0 km/h (0 Bft)
31.05.2018 00:15 20,3 C 96 % 1013,9 hPa 0,0 l/m 0,1 km/h (0 Bft) S-SO 158 0 min 0 W/m 19,6 C 20,3 C 1,6 km/h (1 Bft)
31.05.2018 00:18 20,2 C 96 % 1013,9 hPa 0,0 l/m 0,7 km/h (0 Bft) S-SO 158 0 min 0 W/m 19,5 C 20,2 C 1,6 km/h (1 Bft)
31.05.2018 00:21 20,2 C 96 % 1013,8 hPa 0,0 l/m 0,1 km/h (0 Bft) S-SO 158 0 min 0 W/m 19,5 C 20,2 C 1,6 km/h (1 Bft)
31.05.2018 00:24 20,2 C 96 % 1013,7 hPa 0,0 l/m 0,0 km/h (0 Bft) S-SO 158 0 min 0 W/m 19,5 C 20,2 C 0,0 km/h (0 Bft)
31.05.2018 00:27 20,2 C 96 % 1013,7 hPa 0,0 l/m 0,2 km/h (0 Bft) S-SO 158 0 min 0 W/m 19,5 C 20,2 C 1,6 km/h (1 Bft)
31.05.2018 00:30 20,1 C 96 % 1013,7 hPa 0,0 l/m 0,5 km/h (0 Bft) S-SO 158 0 min 0 W/m 19,4 C 20,1 C 1,6 km/h (1 Bft)
31.05.2018 00:33 20,1 C 95 % 1013,7 hPa 0,0 l/m 0,0 km/h (0 Bft) S-SO 158 0 min 0 W/m 19,3 C 20,1 C 0,0 km/h (0 Bft)
31.05.2018 00:36 19,9 C 95 % 1013,7 hPa 0,0 l/m 0,1 km/h (0 Bft) S-SO 158 0 min 0 W/m 19,1 C 19,9 C 1,6 km/h (1 Bft)
31.05.2018 00:39 19,9 C 96 % 1013,8 hPa 0,0 l/m 0,1 km/h (0 Bft) S-SO 158 0 min 0 W/m 19,2 C 19,9 C 1,6 km/h (1 Bft)
31.05.2018 00:42 19,8 C 95 % 1013,8 hPa 0,0 l/m 0,0 km/h (0 Bft) S-SO 158 0 min 0 W/m 19,0 C 19,8 C 0,0 km/h (0 Bft)
31.05.2018 00:45 19,7 C 95 % 1013,7 hPa 0,0 l/m 0,2 km/h (0 Bft) S-SO 158 0 min 0 W/m 18,9 C 19,7 C 1,6 km/h (1 Bft)
31.05.2018 00:48 19,7 C 96 % 1013,6 hPa 0,0 l/m 0,5 km/h (0 Bft) N-NO 24 0 min 0 W/m 19,0 C 19,7 C 3,2 km/h (1 Bft)
31.05.2018 00:51 19,6 C 95 % 1013,7 hPa 0,0 l/m 0,9 km/h (0 Bft) N-NO 24 0 min 0 W/m 18,8 C 19,6 C 3,2 km/h (1 Bft)
31.05.2018 00:54 19,5 C 96 % 1013,6 hPa 0,0 l/m 0,8 km/h (0 Bft) N-NO 24 0 min 0 W/m 18,8 C 19,5 C 3,2 km/h (1 Bft)
31.05.2018 00:57 19,4 C 96 % 1013,7 hPa 0,0 l/m 0,8 km/h (0 Bft) N 360 0 min 0 W/m 18,7 C 19,4 C 1,6 km/h (1 Bft)
31.05.2018 01:00 19,4 C 96 % 1013,7 hPa 0,0 l/m 0,6 km/h (0 Bft) N 10 0 min 0 W/m 18,7 C 19,4 C 3,2 km/h (1 Bft)
31.05.2018 01:03 19,4 C 96 % 1013,7 hPa 0,0 l/m 0,8 km/h (0 Bft) N 10 0 min 0 W/m 18,7 C 19,4 C 3,2 km/h (1 Bft)
31.05.2018 01:06 19,3 C 96 % 1013,7 hPa 0,0 l/m 0,8 km/h (0 Bft) N 10 0 min 0 W/m 18,6 C 19,3 C 3,2 km/h (1 Bft)
31.05.2018 01:09 19,3 C 96 % 1013,7 hPa 0,0 l/m 0,2 km/h (0 Bft) N 10 0 min 0 W/m 18,6 C 19,3 C 1,6 km/h (1 Bft)
31.05.2018 01:12 19,3 C 96 % 1013,6 hPa 0,0 l/m 0,9 km/h (0 Bft) N 10 0 min 0 W/m 18,6 C 19,3 C 3,2 km/h (1 Bft)
31.05.2018 01:15 19,3 C 96 % 1013,7 hPa 0,0 l/m 0,3 km/h (0 Bft) N 10 0 min 0 W/m 18,6 C 19,3 C 1,6 km/h (1 Bft)
31.05.2018 01:18 19,3 C 96 % 1013,7 hPa 0,0 l/m 0,6 km/h (0 Bft) N 10 0 min 0 W/m 18,6 C 19,3 C 3,2 km/h (1 Bft)
31.05.2018 01:21 19,3 C 96 % 1013,7 hPa 0,0 l/m 0,1 km/h (0 Bft) N 10 0 min 0 W/m 18,6 C 19,3 C 1,6 km/h (1 Bft)
31.05.2018 01:24 19,2 C 96 % 1013,7 hPa 0,0 l/m 0,6 km/h (0 Bft) N 10 0 min 0 W/m 18,5 C 19,2 C 3,2 km/h (1 Bft)
31.05.2018 01:27 19,2 C 96 % 1013,7 hPa 0,0 l/m 0,4 km/h (0 Bft) N 10 0 min 0 W/m 18,5 C 19,2 C 1,6 km/h (1 Bft)
31.05.2018 01:30 19,1 C 96 % 1013,7 hPa 0,0 l/m 0,0 km/h (0 Bft) N 10 0 min 0 W/m 18,4 C 19,1 C 1,6 km/h (1 Bft)
31.05.2018 01:33 19,1 C 96 % 1013,7 hPa 0,0 l/m 0,0 km/h (0 Bft) N 10 0 min 0 W/m 18,4 C 19,1 C 0,0 km/h (0 Bft)
31.05.2018 01:36 19,0 C 96 % 1013,6 hPa 0,0 l/m 0,0 km/h (0 Bft) N 10 0 min 0 W/m 18,3 C 19,0 C 1,6 km/h (1 Bft)
31.05.2018 01:39 18,9 C 96 % 1013,6 hPa 0,0 l/m 0,0 km/h (0 Bft) N 10 0 min 0 W/m 18,2 C 18,9 C 1,6 km/h (1 Bft)
31.05.2018 01:42 18,9 C 96 % 1013,6 hPa 0,0 l/m 0,0 km/h (0 Bft) N 10 0 min 0 W/m 18,2 C 18,9 C 0,0 km/h (0 Bft)
31.05.2018 01:45 18,9 C 96 % 1013,6 hPa 0,0 l/m 0,2 km/h (0 Bft) N 10 0 min 0 W/m 18,2 C 18,9 C 1,6 km/h (1 Bft)
31.05.2018 01:48 18,8 C 96 % 1013,6 hPa 0,0 l/m 0,0 km/h (0 Bft) N 10 0 min 0 W/m 18,1 C 18,8 C 1,6 km/h (1 Bft)
31.05.2018 01:51 18,8 C 96 % 1013,6 hPa 0,0 l/m 0,0 km/h (0 Bft) N 10 0 min 0 W/m 18,1 C 18,8 C 1,6 km/h (1 Bft)
31.05.2018 01:54 18,7 C 96 % 1013,5 hPa 0,0 l/m 0,1 km/h (0 Bft) N 10 0 min 0 W/m 18,0 C 18,7 C 1,6 km/h (1 Bft)
31.05.2018 01:57 18,7 C 96 % 1013,5 hPa 0,0 l/m 0,2 km/h (0 Bft) N 10 0 min 0 W/m 18,0 C 18,7 C 1,6 km/h (1 Bft)
31.05.2018 02:00 18,6 C 96 % 1013,6 hPa 0,0 l/m 0,8 km/h (0 Bft) N-NW 346 0 min 0 W/m 17,9 C 18,6 C 4,8 km/h (1 Bft)
31.05.2018 02:03 18,7 C 96 % 1013,6 hPa 0,0 l/m 0,9 km/h (0 Bft) N-NW 346 0 min 0 W/m 18,0 C 18,7 C 3,2 km/h (1 Bft)
31.05.2018 02:06 18,7 C 96 % 1013,6 hPa 0,0 l/m 0,4 km/h (0 Bft) N-NW 346 0 min 0 W/m 18,0 C 18,7 C 1,6 km/h (1 Bft)
31.05.2018 02:09 18,7 C 96 % 1013,5 hPa 0,0 l/m 0,2 km/h (0 Bft) N-NW 346 0 min 0 W/m 18,0 C 18,7 C 1,6 km/h (1 Bft)
31.05.2018 02:12 18,7 C 96 % 1013,6 hPa 0,0 l/m 0,2 km/h (0 Bft) N-NW 346 0 min 0 W/m 18,0 C 18,7 C 1,6 km/h (1 Bft)
31.05.2018 02:15 18,7 C 96 % 1013,6 hPa 0,0 l/m 0,1 km/h (0 Bft) N-NW 346 0 min 0 W/m 18,0 C 18,7 C 1,6 km/h (1 Bft)
31.05.2018 02:18 18,7 C 96 % 1013,6 hPa 0,0 l/m 0,1 km/h (0 Bft) N-NW 346 0 min 0 W/m 18,0 C 18,7 C 1,6 km/h (1 Bft)
31.05.2018 02:21 18,6 C 96 % 1013,6 hPa 0,0 l/m 0,0 km/h (0 Bft) N-NW 346 0 min 0 W/m 17,9 C 18,6 C 0,0 km/h (0 Bft)
31.05.2018 02:24 18,6 C 96 % 1013,7 hPa 0,0 l/m 0,0 km/h (0 Bft) N-NW 346 0 min 0 W/m 17,9 C 18,6 C 0,0 km/h (0 Bft)
31.05.2018 02:27 18,6 C 96 % 1013,6 hPa 0,0 l/m 0,0 km/h (0 Bft) N-NW 346 0 min 0 W/m 17,9 C 18,6 C 0,0 km/h (0 Bft)
31.05.2018 02:30 18,6 C 96 % 1013,7 hPa 0,0 l/m 0,0 km/h (0 Bft) N-NW 346 0 min 0 W/m 17,9 C 18,6 C 0,0 km/h (0 Bft)
31.05.2018 02:33 18,5 C 96 % 1013,6 hPa 0,0 l/m 0,0 km/h (0 Bft) N-NW 346 0 min 0 W/m 17,8 C 18,5 C 0,0 km/h (0 Bft)
31.05.2018 02:36 18,5 C 96 % 1013,6 hPa 0,0 l/m 0,0 km/h (0 Bft) N-NW 346 0 min 0 W/m 17,8 C 18,5 C 0,0 km/h (0 Bft)
31.05.2018 02:39 18,4 C 96 % 1013,6 hPa 0,0 l/m 0,0 km/h (0 Bft) N-NW 346 0 min 0 W/m 17,7 C 18,4 C 0,0 km/h (0 Bft)
31.05.2018 02:42 18,4 C 96 % 1013,6 hPa 0,0 l/m 0,0 km/h (0 Bft) N-NW 346 0 min 0 W/m 17,7 C 18,4 C 0,0 km/h (0 Bft)
31.05.2018 02:45 18,4 C 96 % 1013,6 hPa 0,0 l/m 0,0 km/h (0 Bft) N-NW 346 0 min 0 W/m 17,7 C 18,4 C 0,0 km/h (0 Bft)
31.05.2018 02:48 18,4 C 96 % 1013,6 hPa 0,0 l/m 0,0 km/h (0 Bft) N-NW 346 0 min 0 W/m 17,7 C 18,4 C 0,0 km/h (0 Bft)
31.05.2018 02:51 18,4 C 96 % 1013,6 hPa 0,0 l/m 0,0 km/h (0 Bft) N-NW 346 0 min 0 W/m 17,7 C 18,4 C 0,0 km/h (0 Bft)
31.05.2018 02:54 18,3 C 96 % 1013,6 hPa 0,0 l/m 0,0 km/h (0 Bft) N-NW 346 0 min 0 W/m 17,6 C 18,3 C 0,0 km/h (0 Bft)
31.05.2018 02:57 18,3 C 96 % 1013,7 hPa 0,0 l/m 0,0 km/h (0 Bft) N-NW 346 0 min 0 W/m 17,6 C 18,3 C 0,0 km/h (0 Bft)
31.05.2018 03:00 18,3 C 96 % 1013,6 hPa 0,0 l/m 0,0 km/h (0 Bft) N-NW 346 0 min 0 W/m 17,6 C 18,3 C 0,0 km/h (0 Bft)
31.05.2018 03:03 18,3 C 96 % 1013,6 hPa 0,0 l/m 0,0 km/h (0 Bft) N-NW 346 0 min 0 W/m 17,6 C 18,3 C 1,6 km/h (1 Bft)
31.05.2018 03:06 18,2 C 96 % 1013,6 hPa 0,0 l/m 0,2 km/h (0 Bft) N-NW 346 0 min 0 W/m 17,6 C 18,2 C 1,6 km/h (1 Bft)
31.05.2018 03:09 18,2 C 96 % 1013,6 hPa 0,0 l/m 0,0 km/h (0 Bft) N-NW 346 0 min 0 W/m 17,6 C 18,2 C 0,0 km/h (0 Bft)
31.05.2018 03:12 18,2 C 96 % 1013,6 hPa 0,0 l/m 0,0 km/h (0 Bft) N-NW 346 0 min 0 W/m 17,6 C 18,2 C 0,0 km/h (0 Bft)
31.05.2018 03:15 18,2 C 96 % 1013,6 hPa 0,0 l/m 0,0 km/h (0 Bft) N-NW 346 0 min 0 W/m 17,6 C 18,2 C 0,0 km/h (0 Bft)
31.05.2018 03:18 18,2 C 96 % 1013,5 hPa 0,0 l/m 0,0 km/h (0 Bft) N-NW 346 0 min 0 W/m 17,6 C 18,2 C 0,0 km/h (0 Bft)
31.05.2018 03:21 18,2 C 96 % 1013,5 hPa 0,0 l/m 0,0 km/h (0 Bft) N-NW 346 0 min 0 W/m 17,6 C 18,2 C 0,0 km/h (0 Bft)
31.05.2018 03:24 18,2 C 96 % 1013,4 hPa 0,0 l/m 0,4 km/h (0 Bft) N-NW 346 0 min 0 W/m 17,6 C 18,2 C 1,6 km/h (1 Bft)
31.05.2018 03:27 18,2 C 96 % 1013,4 hPa 0,0 l/m 0,0 km/h (0 Bft) N-NW 346 0 min 0 W/m 17,6 C 18,2 C 0,0 km/h (0 Bft)
31.05.2018 03:30 18,2 C 97 % 1013,4 hPa 0,0 l/m 0,0 km/h (0 Bft) N-NW 346 0 min 0 W/m 17,7 C 18,2 C 0,0 km/h (0 Bft)
31.05.2018 03:33 18,2 C 96 % 1013,4 hPa 0,0 l/m 0,0 km/h (0 Bft) N-NW 346 0 min 0 W/m 17,6 C 18,2 C 0,0 km/h (0 Bft)
31.05.2018 03:36 18,2 C 96 % 1013,3 hPa 0,0 l/m 0,4 km/h (0 Bft) N-NW 346 0 min 0 W/m 17,6 C 18,2 C 1,6 km/h (1 Bft)
31.05.2018 03:39 18,1 C 96 % 1013,3 hPa 0,0 l/m 0,6 km/h (0 Bft) N-NW 346 0 min 0 W/m 17,5 C 18,1 C 1,6 km/h (1 Bft)
31.05.2018 03:42 17,9 C 96 % 1013,3 hPa 0,0 l/m 0,0 km/h (0 Bft) N-NW 346 0 min 0 W/m 17,3 C 17,9 C 0,0 km/h (0 Bft)
31.05.2018 03:45 17,9 C 96 % 1013,2 hPa 0,0 l/m 0,0 km/h (0 Bft) N-NW 346 0 min 0 W/m 17,3 C 17,9 C 0,0 km/h (0 Bft)
31.05.2018 03:48 17,8 C 96 % 1013,3 hPa 0,0 l/m 0,0 km/h (0 Bft) N-NW 346 0 min 0 W/m 17,2 C 17,8 C 0,0 km/h (0 Bft)
31.05.2018 03:51 17,8 C 96 % 1013,3 hPa 0,0 l/m 0,0 km/h (0 Bft) N-NW 346 0 min 0 W/m 17,2 C 17,8 C 0,0 km/h (0 Bft)
31.05.2018 03:54 17,9 C 96 % 1013,3 hPa 0,0 l/m 0,0 km/h (0 Bft) N-NW 346 0 min 0 W/m 17,3 C 17,9 C 0,0 km/h (0 Bft)
31.05.2018 03:57 17,8 C 96 % 1013,3 hPa 0,0 l/m 0,0 km/h (0 Bft) N-NW 346 0 min 0 W/m 17,2 C 17,8 C 0,0 km/h (0 Bft)
31.05.2018 04:00 17,8 C 96 % 1013,2 hPa 0,0 l/m 0,0 km/h (0 Bft) N-NW 346 0 min 0 W/m 17,2 C 17,8 C 0,0 km/h (0 Bft)
31.05.2018 04:03 17,9 C 97 % 1013,3 hPa 0,0 l/m 0,0 km/h (0 Bft) N-NW 346 0 min 0 W/m 17,4 C 17,9 C 0,0 km/h (0 Bft)
31.05.2018 04:06 17,8 C 96 % 1013,3 hPa 0,0 l/m 0,0 km/h (0 Bft) N-NW 346 0 min 0 W/m 17,2 C 17,8 C 0,0 km/h (0 Bft)
31.05.2018 04:09 17,8 C 97 % 1013,3 hPa 0,0 l/m 0,0 km/h (0 Bft) N-NW 346 0 min 0 W/m 17,3 C 17,8 C 0,0 km/h (0 Bft)
31.05.2018 04:12 17,8 C 97 % 1013,3 hPa 0,0 l/m 0,1 km/h (0 Bft) N-NW 346 0 min 0 W/m 17,3 C 17,8 C 1,6 km/h (1 Bft)
31.05.2018 04:15 17,7 C 97 % 1013,3 hPa 0,0 l/m 0,0 km/h (0 Bft) N-NW 346 0 min 0 W/m 17,2 C 17,7 C 0,0 km/h (0 Bft)
31.05.2018 04:18 17,7 C 97 % 1013,3 hPa 0,0 l/m 0,5 km/h (0 Bft) N-NW 346 0 min 0 W/m 17,2 C 17,7 C 1,6 km/h (1 Bft)
31.05.2018 04:21 17,7 C 97 % 1013,3 hPa 0,0 l/m 0,8 km/h (0 Bft) N-NW 346 0 min 0 W/m 17,2 C 17,7 C 1,6 km/h (1 Bft)
31.05.2018 04:24 17,7 C 97 % 1013,3 hPa 0,0 l/m 0,5 km/h (0 Bft) N-NW 346 0 min 0 W/m 17,2 C 17,7 C 3,2 km/h (1 Bft)
31.05.2018 04:27 17,6 C 96 % 1013,3 hPa 0,0 l/m 1,3 km/h (1 Bft) N-NW 346 0 min 0 W/m 17,0 C 17,6 C 3,2 km/h (1 Bft)
31.05.2018 04:30 17,6 C 96 % 1013,3 hPa 0,0 l/m 1,0 km/h (0 Bft) N-NW 346 0 min 0 W/m 17,0 C 17,6 C 3,2 km/h (1 Bft)
31.05.2018 04:33 17,6 C 97 % 1013,3 hPa 0,0 l/m 1,4 km/h (1 Bft) N-NW 346 0 min 0 W/m 17,1 C 17,6 C 3,2 km/h (1 Bft)
31.05.2018 04:36 17,6 C 97 % 1013,3 hPa 0,0 l/m 1,3 km/h (1 Bft) N-NW 346 0 min 0 W/m 17,1 C 17,6 C 3,2 km/h (1 Bft)
31.05.2018 04:39 17,6 C 97 % 1013,3 hPa 0,0 l/m 0,1 km/h (0 Bft) N-NW 346 0 min 0 W/m 17,1 C 17,6 C 1,6 km/h (1 Bft)
31.05.2018 04:42 17,6 C 97 % 1013,4 hPa 0,0 l/m 0,8 km/h (0 Bft) N-NW 346 0 min 0 W/m 17,1 C 17,6 C 1,6 km/h (1 Bft)
31.05.2018 04:45 17,7 C 97 % 1013,3 hPa 0,0 l/m 0,9 km/h (0 Bft) N-NW 346 0 min 0 W/m 17,2 C 17,7 C 3,2 km/h (1 Bft)
31.05.2018 04:48 17,7 C 97 % 1013,3 hPa 0,0 l/m 1,4 km/h (1 Bft) N-NW 346 0 min 0 W/m 17,2 C 17,7 C 3,2 km/h (1 Bft)
31.05.2018 04:51 17,7 C 97 % 1013,3 hPa 0,0 l/m 1,2 km/h (1 Bft) N-NW 346 0 min 0 W/m 17,2 C 17,7 C 3,2 km/h (1 Bft)
31.05.2018 04:54 17,7 C 97 % 1013,3 hPa 0,0 l/m 1,5 km/h (1 Bft) N 5 0 min 0 W/m 17,2 C 17,7 C 4,8 km/h (1 Bft)
31.05.2018 04:57 17,7 C 97 % 1013,4 hPa 0,0 l/m 1,0 km/h (0 Bft) N 5 0 min 0 W/m 17,2 C 17,7 C 3,2 km/h (1 Bft)
31.05.2018 05:00 17,7 C 97 % 1013,3 hPa 0,0 l/m 1,2 km/h (1 Bft) N-NO 17 0 min 0 W/m 17,2 C 17,7 C 6,4 km/h (2 Bft)
31.05.2018 05:03 17,6 C 97 % 1013,4 hPa 0,0 l/m 0,9 km/h (0 Bft) N-NO 17 0 min 0 W/m 17,1 C 17,6 C 3,2 km/h (1 Bft)
31.05.2018 05:06 17,6 C 97 % 1013,4 hPa 0,0 l/m 1,7 km/h (1 Bft) N-NO 17 0 min 0 W/m 17,1 C 17,6 C 3,2 km/h (1 Bft)
31.05.2018 05:09 17,6 C 97 % 1013,3 hPa 0,0 l/m 0,7 km/h (0 Bft) N-NO 17 0 min 5 W/m 17,1 C 17,6 C 3,2 km/h (1 Bft)
31.05.2018 05:15 17,5 C 97 % 1013,4 hPa 0,0 l/m 0,0 km/h (0 Bft) O-NO 65 0 min 7 W/m 17,0 C 17,5 C 0,0 km/h (0 Bft)
31.05.2018 05:18 17,5 C 97 % 1013,3 hPa 0,0 l/m 0,6 km/h (0 Bft) O-NO 65 0 min 7 W/m 17,0 C 17,5 C 3,2 km/h (1 Bft)
31.05.2018 05:27 17,4 C 97 % 1013,3 hPa 0,0 l/m 1,9 km/h (1 Bft) NO 38 0 min 11 W/m 16,9 C 17,4 C 4,8 km/h (1 Bft)
31.05.2018 05:30 17,3 C 97 % 1013,4 hPa 0,0 l/m 1,6 km/h (1 Bft) NO 45 0 min 12 W/m 16,8 C 17,3 C 4,8 km/h (1 Bft)
31.05.2018 05:33 17,3 C 97 % 1013,4 hPa 0,0 l/m 1,5 km/h (1 Bft) NO 38 0 min 12 W/m 16,8 C 17,3 C 3,2 km/h (1 Bft)
31.05.2018 05:36 17,3 C 97 % 1013,4 hPa 0,0 l/m 0,9 km/h (0 Bft) O-NO 68 0 min 14 W/m 16,8 C 17,3 C 3,2 km/h (1 Bft)
31.05.2018 05:39 17,3 C 97 % 1013,4 hPa 0,0 l/m 1,6 km/h (1 Bft) O 81 0 min 16 W/m 16,8 C 17,3 C 4,8 km/h (1 Bft)
31.05.2018 05:42 17,3 C 97 % 1013,4 hPa 0,0 l/m 1,3 km/h (1 Bft) O 81 0 min 16 W/m 16,8 C 17,3 C 3,2 km/h (1 Bft)
31.05.2018 05:45 17,3 C 97 % 1013,3 hPa 0,0 l/m 1,6 km/h (1 Bft) O 84 0 min 18 W/m 16,8 C 17,3 C 6,4 km/h (2 Bft)
31.05.2018 05:48 17,4 C 97 % 1013,3 hPa 0,0 l/m 1,9 km/h (1 Bft) O-NO 72 0 min 19 W/m 16,9 C 17,4 C 6,4 km/h (2 Bft)
31.05.2018 05:51 17,4 C 97 % 1013,4 hPa 0,0 l/m 2,2 km/h (1 Bft) O-NO 70 0 min 21 W/m 16,9 C 17,4 C 6,4 km/h (2 Bft)
31.05.2018 05:54 17,4 C 97 % 1013,4 hPa 0,0 l/m 1,5 km/h (1 Bft) O 82 0 min 23 W/m 16,9 C 17,4 C 3,2 km/h (1 Bft)
31.05.2018 05:57 17,4 C 97 % 1013,4 hPa 0,0 l/m 1,0 km/h (0 Bft) NO 42 0 min 23 W/m 16,9 C 17,4 C 6,4 km/h (2 Bft)
31.05.2018 06:00 17,4 C 97 % 1013,5 hPa 0,0 l/m 1,1 km/h (1 Bft) O-NO 64 0 min 25 W/m 16,9 C 17,4 C 4,8 km/h (1 Bft)
31.05.2018 06:03 17,4 C 97 % 1013,5 hPa 0,0 l/m 2,3 km/h (1 Bft) NO 44 0 min 26 W/m 16,9 C 17,4 C 4,8 km/h (1 Bft)
31.05.2018 06:06 17,4 C 97 % 1013,5 hPa 0,0 l/m 1,1 km/h (1 Bft) NO 51 0 min 28 W/m 16,9 C 17,4 C 3,2 km/h (1 Bft)
31.05.2018 06:09 17,4 C 97 % 1013,6 hPa 0,0 l/m 1,2 km/h (1 Bft) O-NO 67 0 min 28 W/m 16,9 C 17,4 C 4,8 km/h (1 Bft)
31.05.2018 06:12 17,4 C 97 % 1013,6 hPa 0,0 l/m 1,5 km/h (1 Bft) O-NO 61 0 min 30 W/m 16,9 C 17,4 C 4,8 km/h (1 Bft)
31.05.2018 06:15 17,4 C 97 % 1013,5 hPa 0,0 l/m 1,1 km/h (1 Bft) O-NO 61 0 min 30 W/m 16,9 C 17,4 C 4,8 km/h (1 Bft)
31.05.2018 06:18 17,4 C 97 % 1013,6 hPa 0,0 l/m 1,0 km/h (0 Bft) O-NO 61 0 min 32 W/m 16,9 C 17,4 C 3,2 km/h (1 Bft)
31.05.2018 06:21 17,4 C 97 % 1013,6 hPa 0,0 l/m 1,0 km/h (0 Bft) O-NO 61 0 min 32 W/m 16,9 C 17,4 C 3,2 km/h (1 Bft)
31.05.2018 06:24 17,4 C 97 % 1013,6 hPa 0,0 l/m 0,8 km/h (0 Bft) O-NO 58 0 min 33 W/m 16,9 C 17,4 C 4,8 km/h (1 Bft)
31.05.2018 06:27 17,4 C 97 % 1013,6 hPa 0,0 l/m 0,8 km/h (0 Bft) O-NO 57 0 min 35 W/m 16,9 C 17,4 C 3,2 km/h (1 Bft)
31.05.2018 06:30 17,4 C 97 % 1013,6 hPa 0,0 l/m 1,5 km/h (1 Bft) O-NO 70 0 min 37 W/m 16,9 C 17,4 C 6,4 km/h (2 Bft)
31.05.2018 06:33 17,4 C 97 % 1013,6 hPa 0,0 l/m 1,5 km/h (1 Bft) O-SO 111 0 min 39 W/m 16,9 C 17,4 C 4,8 km/h (1 Bft)
31.05.2018 06:36 17,4 C 97 % 1013,6 hPa 0,0 l/m 1,7 km/h (1 Bft) O 83 0 min 40 W/m 16,9 C 17,4 C 4,8 km/h (1 Bft)
31.05.2018 06:39 17,4 C 97 % 1013,5 hPa 0,0 l/m 2,3 km/h (1 Bft) NO 47 0 min 40 W/m 16,9 C 17,4 C 4,8 km/h (1 Bft)
31.05.2018 06:42 17,4 C 97 % 1013,5 hPa 0,0 l/m 2,2 km/h (1 Bft) NO 49 0 min 42 W/m 16,9 C 17,4 C 6,4 km/h (2 Bft)
31.05.2018 06:45 17,5 C 97 % 1013,5 hPa 0,0 l/m 2,0 km/h (1 Bft) NO 48 0 min 44 W/m 17,0 C 17,5 C 4,8 km/h (1 Bft)
31.05.2018 06:48 17,6 C 97 % 1013,5 hPa 0,0 l/m 1,9 km/h (1 Bft) O-NO 68 0 min 44 W/m 17,1 C 17,6 C 6,4 km/h (2 Bft)
31.05.2018 06:51 17,6 C 97 % 1013,5 hPa 0,0 l/m 2,9 km/h (1 Bft) O-NO 68 0 min 46 W/m 17,1 C 17,6 C 8,0 km/h (2 Bft)
31.05.2018 06:54 17,6 C 97 % 1013,5 hPa 0,0 l/m 1,7 km/h (1 Bft) O-NO 74 0 min 46 W/m 17,1 C 17,6 C 4,8 km/h (1 Bft)
31.05.2018 06:57 17,6 C 97 % 1013,5 hPa 0,0 l/m 2,5 km/h (1 Bft) NO 40 0 min 47 W/m 17,1 C 17,6 C 6,4 km/h (2 Bft)
31.05.2018 07:00 17,6 C 97 % 1013,5 hPa 0,0 l/m 2,8 km/h (1 Bft) O-NO 66 0 min 47 W/m 17,1 C 17,6 C 6,4 km/h (2 Bft)
31.05.2018 07:03 17,6 C 97 % 1013,6 hPa 0,0 l/m 3,0 km/h (1 Bft) N-NO 28 0 min 47 W/m 17,1 C 17,6 C 9,7 km/h (2 Bft)
31.05.2018 07:06 17,6 C 97 % 1013,6 hPa 0,0 l/m 3,2 km/h (1 Bft) NO 52 0 min 49 W/m 17,1 C 17,6 C 9,7 km/h (2 Bft)
31.05.2018 07:09 17,6 C 96 % 1013,7 hPa 0,0 l/m 3,1 km/h (1 Bft) O-NO 63 0 min 51 W/m 17,0 C 17,6 C 4,8 km/h (1 Bft)
31.05.2018 07:12 17,6 C 96 % 1013,8 hPa 0,0 l/m 3,6 km/h (1 Bft) O-NO 69 0 min 53 W/m 17,0 C 17,6 C 6,4 km/h (2 Bft)
31.05.2018 07:15 17,6 C 96 % 1013,8 hPa 0,0 l/m 3,4 km/h (1 Bft) NO 42 0 min 56 W/m 17,0 C 17,6 C 9,7 km/h (2 Bft)
31.05.2018 07:18 17,6 C 96 % 1013,8 hPa 0,0 l/m 2,7 km/h (1 Bft) NO 55 0 min 58 W/m 17,0 C 17,6 C 8,0 km/h (2 Bft)
31.05.2018 07:21 17,6 C 96 % 1013,8 hPa 0,0 l/m 3,6 km/h (1 Bft) NO 40 0 min 58 W/m 17,0 C 17,6 C 8,0 km/h (2 Bft)
31.05.2018 07:24 17,7 C 96 % 1013,7 hPa 0,0 l/m 2,4 km/h (1 Bft) O-NO 67 0 min 58 W/m 17,1 C 17,7 C 6,4 km/h (2 Bft)
31.05.2018 07:27 17,7 C 96 % 1013,7 hPa 0,0 l/m 1,9 km/h (1 Bft) O-NO 71 0 min 60 W/m 17,1 C 17,7 C 6,4 km/h (2 Bft)
31.05.2018 07:30 17,8 C 96 % 1013,7 hPa 0,0 l/m 2,9 km/h (1 Bft) O-NO 64 0 min 63 W/m 17,2 C 17,8 C 8,0 km/h (2 Bft)
31.05.2018 07:33 17,8 C 96 % 1013,8 hPa 0,0 l/m 1,5 km/h (1 Bft) O 79 0 min 69 W/m 17,2 C 17,8 C 4,8 km/h (1 Bft)
31.05.2018 07:36 17,8 C 95 % 1013,8 hPa 0,0 l/m 2,7 km/h (1 Bft) O 96 0 min 70 W/m 17,0 C 17,8 C 8,0 km/h (2 Bft)
31.05.2018 07:39 17,8 C 95 % 1013,9 hPa 0,0 l/m 2,7 km/h (1 Bft) NO 42 0 min 69 W/m 17,0 C 17,8 C 8,0 km/h (2 Bft)
31.05.2018 07:42 17,7 C 95 % 1013,8 hPa 0,0 l/m 1,7 km/h (1 Bft) NO 47 0 min 69 W/m 16,9 C 17,7 C 3,2 km/h (1 Bft)
31.05.2018 07:45 17,7 C 95 % 1013,8 hPa 0,0 l/m 3,3 km/h (1 Bft) NO 42 0 min 69 W/m 16,9 C 17,7 C 11,3 km/h (2 Bft)
31.05.2018 07:48 17,7 C 94 % 1013,8 hPa 0,0 l/m 3,3 km/h (1 Bft) SO 139 0 min 70 W/m 16,7 C 17,7 C 8,0 km/h (2 Bft)
31.05.2018 07:51 17,7 C 94 % 1013,8 hPa 0,0 l/m 4,9 km/h (1 Bft) O 96 0 min 72 W/m 16,7 C 17,7 C 14,5 km/h (3 Bft)
31.05.2018 07:54 17,8 C 94 % 1013,8 hPa 0,0 l/m 2,9 km/h (1 Bft) N-NO 30 0 min 74 W/m 16,8 C 17,8 C 9,7 km/h (2 Bft)
31.05.2018 07:57 17,8 C 94 % 1013,8 hPa 0,0 l/m 1,5 km/h (1 Bft) N-NO 17 0 min 77 W/m 16,8 C 17,8 C 4,8 km/h (1 Bft)
31.05.2018 08:00 17,9 C 94 % 1013,8 hPa 0,0 l/m 1,9 km/h (1 Bft) O-SO 117 0 min 84 W/m 16,9 C 17,9 C 3,2 km/h (1 Bft)
31.05.2018 08:03 17,9 C 93 % 1013,9 hPa 0,0 l/m 5,3 km/h (1 Bft) O-NO 75 0 min 113 W/m 16,8 C 17,9 C 9,7 km/h (2 Bft)
31.05.2018 08:06 18,0 C 93 % 1013,9 hPa 0,0 l/m 3,1 km/h (1 Bft) O 92 0 min 139 W/m 16,8 C 18,0 C 6,4 km/h (2 Bft)
31.05.2018 08:09 18,1 C 93 % 1014,0 hPa 0,0 l/m 3,5 km/h (1 Bft) O-NO 69 0 min 178 W/m 16,9 C 18,1 C 8,0 km/h (2 Bft)
31.05.2018 08:12 18,3 C 92 % 1013,9 hPa 0,0 l/m 3,9 km/h (1 Bft) N-NO 28 0 min 220 W/m 17,0 C 18,3 C 14,5 km/h (3 Bft)
31.05.2018 08:15 18,5 C 92 % 1014,0 hPa 0,0 l/m 7,3 km/h (2 Bft) O 98 3 min 345 W/m 17,2 C 18,1 C 12,9 km/h (3 Bft)
31.05.2018 08:18 18,6 C 91 % 1013,9 hPa 0,0 l/m 4,4 km/h (1 Bft) O-SO 107 3 min 285 W/m 17,1 C 18,6 C 12,9 km/h (3 Bft)
31.05.2018 08:21 18,8 C 91 % 1014,0 hPa 0,0 l/m 3,7 km/h (1 Bft) NO 39 3 min 343 W/m 17,3 C 18,8 C 11,3 km/h (2 Bft)
31.05.2018 08:24 19,1 C 90 % 1014,0 hPa 0,0 l/m 4,4 km/h (1 Bft) O-SO 112 3 min 334 W/m 17,4 C 19,1 C 12,9 km/h (3 Bft)
31.05.2018 08:27 19,0 C 88 % 1014,0 hPa 0,0 l/m 5,0 km/h (1 Bft) O-SO 107 3 min 322 W/m 17,0 C 19,0 C 11,3 km/h (2 Bft)
31.05.2018 08:30 19,2 C 87 % 1014,0 hPa 0,0 l/m 5,9 km/h (2 Bft) S 169 3 min 320 W/m 17,0 C 19,2 C 12,9 km/h (3 Bft)
31.05.2018 08:33 19,4 C 86 % 1014,0 hPa 0,0 l/m 4,4 km/h (1 Bft) SO 134 3 min 323 W/m 17,0 C 19,4 C 11,3 km/h (2 Bft)
31.05.2018 08:36 19,4 C 86 % 1014,1 hPa 0,0 l/m 4,4 km/h (1 Bft) N-NW 344 3 min 327 W/m 17,0 C 19,4 C 11,3 km/h (2 Bft)
31.05.2018 08:39 19,5 C 86 % 1014,1 hPa 0,0 l/m 2,9 km/h (1 Bft) O-NO 67 3 min 334 W/m 17,1 C 19,5 C 8,0 km/h (2 Bft)
31.05.2018 08:42 19,6 C 86 % 1014,1 hPa 0,0 l/m 3,5 km/h (1 Bft) S-SO 163 3 min 346 W/m 17,2 C 19,6 C 11,3 km/h (2 Bft)
31.05.2018 08:45 19,7 C 86 % 1014,0 hPa 0,0 l/m 2,6 km/h (1 Bft) NO 46 3 min 359 W/m 17,3 C 19,7 C 6,4 km/h (2 Bft)
31.05.2018 08:48 19,7 C 86 % 1014,0 hPa 0,0 l/m 4,5 km/h (1 Bft) O 82 3 min 366 W/m 17,3 C 19,7 C 14,5 km/h (3 Bft)
31.05.2018 08:51 19,7 C 86 % 1014,1 hPa 0,0 l/m 3,8 km/h (1 Bft) O-NO 58 3 min 332 W/m 17,3 C 19,7 C 12,9 km/h (3 Bft)
31.05.2018 08:54 19,7 C 85 % 1014,0 hPa 0,0 l/m 3,8 km/h (1 Bft) O-SO 111 3 min 366 W/m 17,1 C 19,7 C 9,7 km/h (2 Bft)
31.05.2018 08:57 19,7 C 85 % 1014,0 hPa 0,0 l/m 5,2 km/h (1 Bft) N 355 3 min 396 W/m 17,1 C 19,7 C 11,3 km/h (2 Bft)
31.05.2018 09:00 19,8 C 85 % 1014,1 hPa 0,0 l/m 4,1 km/h (1 Bft) O-NO 78 3 min 392 W/m 17,2 C 19,8 C 8,0 km/h (2 Bft)
31.05.2018 09:03 19,9 C 85 % 1014,1 hPa 0,0 l/m 3,0 km/h (1 Bft) N-NO 33 3 min 401 W/m 17,3 C 19,9 C 6,4 km/h (2 Bft)
31.05.2018 09:06 20,1 C 86 % 1014,1 hPa 0,0 l/m 3,5 km/h (1 Bft) N-NO 32 3 min 424 W/m 17,7 C 20,1 C 11,3 km/h (2 Bft)
31.05.2018 09:09 20,1 C 86 % 1014,0 hPa 0,0 l/m 3,1 km/h (1 Bft) NO 53 3 min 432 W/m 17,7 C 20,1 C 8,0 km/h (2 Bft)
31.05.2018 09:12 20,2 C 86 % 1014,0 hPa 0,0 l/m 3,0 km/h (1 Bft) SO 142 3 min 443 W/m 17,8 C 20,2 C 9,7 km/h (2 Bft)
31.05.2018 09:15 20,4 C 84 % 1013,9 hPa 0,0 l/m 3,3 km/h (1 Bft) SO 134 3 min 452 W/m 17,6 C 20,4 C 9,7 km/h (2 Bft)
31.05.2018 09:18 20,4 C 85 % 1014,0 hPa 0,0 l/m 3,5 km/h (1 Bft) O-SO 112 3 min 457 W/m 17,8 C 20,4 C 9,7 km/h (2 Bft)
31.05.2018 09:21 20,6 C 84 % 1014,0 hPa 0,0 l/m 2,5 km/h (1 Bft) O-NO 59 3 min 462 W/m 17,8 C 20,6 C 6,4 km/h (2 Bft)
31.05.2018 09:24 20,7 C 84 % 1014,1 hPa 0,0 l/m 2,0 km/h (1 Bft) O-NO 68 3 min 471 W/m 17,9 C 20,7 C 4,8 km/h (1 Bft)
31.05.2018 09:27 20,8 C 84 % 1014,1 hPa 0,0 l/m 1,8 km/h (1 Bft) O-SO 115 3 min 476 W/m 18,0 C 20,8 C 8,0 km/h (2 Bft)
31.05.2018 09:30 21,1 C 83 % 1014,2 hPa 0,0 l/m 1,6 km/h (1 Bft) O-SO 111 3 min 482 W/m 18,1 C 21,1 C 4,8 km/h (1 Bft)
31.05.2018 09:33 21,1 C 82 % 1014,2 hPa 0,0 l/m 1,9 km/h (1 Bft) O-NO 72 3 min 489 W/m 17,9 C 21,1 C 6,4 km/h (2 Bft)
31.05.2018 09:36 21,2 C 82 % 1014,2 hPa 0,0 l/m 2,8 km/h (1 Bft) NO 46 3 min 494 W/m 18,0 C 21,2 C 8,0 km/h (2 Bft)
31.05.2018 09:39 21,3 C 83 % 1014,3 hPa 0,0 l/m 2,2 km/h (1 Bft) O-NO 71 3 min 501 W/m 18,3 C 21,3 C 4,8 km/h (1 Bft)
31.05.2018 09:42 21,5 C 83 % 1014,2 hPa 0,0 l/m 2,2 km/h (1 Bft) O-NO 57 3 min 506 W/m 18,5 C 21,5 C 8,0 km/h (2 Bft)
31.05.2018 09:45 21,6 C 82 % 1014,3 hPa 0,0 l/m 3,6 km/h (1 Bft) N 9 3 min 504 W/m 18,4 C 21,6 C 8,0 km/h (2 Bft)
31.05.2018 09:48 21,6 C 82 % 1014,3 hPa 0,0 l/m 2,8 km/h (1 Bft) O 80 3 min 499 W/m 18,4 C 21,6 C 6,4 km/h (2 Bft)
31.05.2018 09:51 21,7 C 82 % 1014,2 hPa 0,0 l/m 3,3 km/h (1 Bft) N-NW 342 3 min 492 W/m 18,5 C 21,7 C 8,0 km/h (2 Bft)
31.05.2018 09:54 21,7 C 82 % 1014,3 hPa 0,0 l/m 3,2 km/h (1 Bft) O-NO 59 3 min 483 W/m 18,5 C 21,7 C 8,0 km/h (2 Bft)
31.05.2018 09:57 21,8 C 80 % 1014,3 hPa 0,0 l/m 3,4 km/h (1 Bft) O 98 3 min 471 W/m 18,2 C 21,8 C 6,4 km/h (2 Bft)
31.05.2018 10:00 21,9 C 80 % 1014,3 hPa 0,0 l/m 2,6 km/h (1 Bft) NO 36 3 min 459 W/m 18,3 C 21,9 C 8,0 km/h (2 Bft)
31.05.2018 10:03 22,1 C 80 % 1014,4 hPa 0,0 l/m 1,4 km/h (1 Bft) NO 52 3 min 452 W/m 18,5 C 22,1 C 4,8 km/h (1 Bft)
31.05.2018 10:06 22,2 C 81 % 1014,3 hPa 0,0 l/m 1,2 km/h (1 Bft) NO 52 3 min 445 W/m 18,8 C 22,2 C 3,2 km/h (1 Bft)
31.05.2018 10:09 22,3 C 78 % 1014,4 hPa 0,0 l/m 2,6 km/h (1 Bft) NO 42 3 min 446 W/m 18,3 C 22,3 C 6,4 km/h (2 Bft)
31.05.2018 10:12 22,5 C 80 % 1014,4 hPa 0,0 l/m 2,5 km/h (1 Bft) NO 34 3 min 450 W/m 18,9 C 22,5 C 6,4 km/h (2 Bft)
31.05.2018 10:15 22,6 C 80 % 1014,4 hPa 0,0 l/m 2,5 km/h (1 Bft) W-NW 294 3 min 461 W/m 19,0 C 22,6 C 6,4 km/h (2 Bft)
31.05.2018 10:18 22,7 C 79 % 1014,4 hPa 0,0 l/m 2,5 km/h (1 Bft) NO 39 3 min 478 W/m 18,9 C 22,7 C 8,0 km/h (2 Bft)
31.05.2018 10:21 22,8 C 79 % 1014,4 hPa 0,0 l/m 2,2 km/h (1 Bft) N-NO 31 3 min 497 W/m 19,0 C 22,8 C 6,4 km/h (2 Bft)
31.05.2018 10:24 22,9 C 78 % 1014,4 hPa 0,0 l/m 2,3 km/h (1 Bft) NO 49 3 min 526 W/m 18,9 C 22,9 C 6,4 km/h (2 Bft)
31.05.2018 10:27 23,0 C 78 % 1014,4 hPa 0,0 l/m 2,4 km/h (1 Bft) NO 51 3 min 547 W/m 18,9 C 23,0 C 6,4 km/h (2 Bft)
31.05.2018 10:30 23,1 C 78 % 1014,5 hPa 0,0 l/m 3,9 km/h (1 Bft) NO 43 3 min 575 W/m 19,0 C 23,1 C 9,7 km/h (2 Bft)
31.05.2018 10:33 23,2 C 77 % 1014,5 hPa 0,0 l/m 2,9 km/h (1 Bft) O-NO 61 3 min 594 W/m 18,9 C 23,2 C 6,4 km/h (2 Bft)
31.05.2018 10:36 23,1 C 78 % 1014,5 hPa 0,0 l/m 2,6 km/h (1 Bft) O-SO 109 3 min 613 W/m 19,0 C 23,1 C 8,0 km/h (2 Bft)
31.05.2018 10:39 23,1 C 78 % 1014,5 hPa 0,0 l/m 4,4 km/h (1 Bft) O-NO 67 3 min 621 W/m 19,0 C 23,1 C 8,0 km/h (2 Bft)
31.05.2018 10:42 23,1 C 78 % 1014,5 hPa 0,0 l/m 5,6 km/h (2 Bft) N 9 3 min 626 W/m 19,0 C 23,1 C 9,7 km/h (2 Bft)
31.05.2018 10:45 23,2 C 76 % 1014,5 hPa 0,0 l/m 4,1 km/h (1 Bft) N 11 3 min 629 W/m 18,7 C 23,2 C 8,0 km/h (2 Bft)
31.05.2018 10:48 23,4 C 77 % 1014,6 hPa 0,0 l/m 3,2 km/h (1 Bft) N-NW 329 3 min 635 W/m 19,1 C 23,4 C 8,0 km/h (2 Bft)
31.05.2018 10:51 23,5 C 76 % 1014,5 hPa 0,0 l/m 2,4 km/h (1 Bft) N-NW 335 3 min 640 W/m 19,0 C 23,5 C 8,0 km/h (2 Bft)
31.05.2018 10:54 23,6 C 77 % 1014,5 hPa 0,0 l/m 2,6 km/h (1 Bft) NO 36 3 min 642 W/m 19,3 C 23,6 C 6,4 km/h (2 Bft)
31.05.2018 10:57 23,5 C 77 % 1014,5 hPa 0,0 l/m 3,4 km/h (1 Bft) N-NO 21 3 min 647 W/m 19,2 C 23,5 C 8,0 km/h (2 Bft)
31.05.2018 11:00 23,7 C 75 % 1014,5 hPa 0,0 l/m 3,1 km/h (1 Bft) N-NW 332 3 min 656 W/m 19,0 C 23,7 C 6,4 km/h (2 Bft)
31.05.2018 11:03 23,8 C 76 % 1014,6 hPa 0,0 l/m 3,9 km/h (1 Bft) NO 51 3 min 661 W/m 19,3 C 23,8 C 9,7 km/h (2 Bft)
31.05.2018 11:06 24,1 C 76 % 1014,5 hPa 0,0 l/m 2,5 km/h (1 Bft) NO 43 3 min 661 W/m 19,6 C 24,1 C 6,4 km/h (2 Bft)
31.05.2018 11:09 24,1 C 73 % 1014,5 hPa 0,0 l/m 2,2 km/h (1 Bft) W-SW 251 3 min 664 W/m 18,9 C 24,1 C 4,8 km/h (1 Bft)
31.05.2018 11:12 24,1 C 73 % 1014,5 hPa 0,0 l/m 6,5 km/h (2 Bft) NO 40 3 min 668 W/m 18,9 C 24,1 C 16,1 km/h (3 Bft)
31.05.2018 11:15 24,2 C 75 % 1014,5 hPa 0,0 l/m 2,9 km/h (1 Bft) O-NO 65 3 min 673 W/m 19,5 C 24,2 C 8,0 km/h (2 Bft)
31.05.2018 11:18 24,3 C 72 % 1014,5 hPa 0,0 l/m 2,6 km/h (1 Bft) N-NO 17 3 min 679 W/m 18,9 C 24,3 C 6,4 km/h (2 Bft)
31.05.2018 11:21 24,3 C 73 % 1014,4 hPa 0,0 l/m 3,7 km/h (1 Bft) N-NO 24 3 min 684 W/m 19,1 C 24,3 C 9,7 km/h (2 Bft)
31.05.2018 11:24 24,3 C 71 % 1014,4 hPa 0,0 l/m 4,5 km/h (1 Bft) N-NO 26 3 min 689 W/m 18,7 C 24,3 C 11,3 km/h (2 Bft)
31.05.2018 11:27 24,4 C 73 % 1014,4 hPa 0,0 l/m 4,0 km/h (1 Bft) O-SO 109 3 min 694 W/m 19,2 C 24,4 C 9,7 km/h (2 Bft)
31.05.2018 11:30 24,7 C 73 % 1014,4 hPa 0,0 l/m 3,8 km/h (1 Bft) NO 36 3 min 694 W/m 19,5 C 24,7 C 8,0 km/h (2 Bft)
31.05.2018 11:33 24,7 C 71 % 1014,5 hPa 0,0 l/m 4,0 km/h (1 Bft) S-SO 150 3 min 700 W/m 19,1 C 24,7 C 8,0 km/h (2 Bft)
31.05.2018 11:36 24,7 C 71 % 1014,4 hPa 0,0 l/m 4,2 km/h (1 Bft) SO 127 3 min 705 W/m 19,1 C 24,7 C 12,9 km/h (3 Bft)
31.05.2018 11:39 24,8 C 72 % 1014,4 hPa 0,0 l/m 2,3 km/h (1 Bft) NO 55 3 min 687 W/m 19,4 C 24,8 C 6,4 km/h (2 Bft)
31.05.2018 11:42 24,7 C 72 % 1014,4 hPa 0,0 l/m 4,7 km/h (1 Bft) O 94 3 min 712 W/m 19,3 C 24,7 C 9,7 km/h (2 Bft)
31.05.2018 11:45 24,8 C 73 % 1014,4 hPa 0,0 l/m 2,8 km/h (1 Bft) O-NO 61 3 min 728 W/m 19,6 C 24,8 C 6,4 km/h (2 Bft)
31.05.2018 11:48 25,2 C 73 % 1014,4 hPa 0,0 l/m 1,5 km/h (1 Bft) N-NW 348 3 min 728 W/m 20,0 C 25,2 C 3,2 km/h (1 Bft)
31.05.2018 11:51 25,3 C 70 % 1014,4 hPa 0,0 l/m 3,0 km/h (1 Bft) N 5 3 min 740 W/m 19,4 C 25,3 C 8,0 km/h (2 Bft)
31.05.2018 11:54 25,5 C 70 % 1014,5 hPa 0,0 l/m 2,3 km/h (1 Bft) S-SO 153 3 min 744 W/m 19,6 C 25,5 C 6,4 km/h (2 Bft)
31.05.2018 11:57 25,4 C 70 % 1014,5 hPa 0,0 l/m 4,6 km/h (1 Bft) N-NO 31 3 min 733 W/m 19,5 C 25,4 C 9,7 km/h (2 Bft)
31.05.2018 12:00 25,4 C 69 % 1014,5 hPa 0,0 l/m 5,0 km/h (1 Bft) O-SO 122 3 min 724 W/m 19,3 C 25,4 C 12,9 km/h (3 Bft)
31.05.2018 12:03 25,4 C 71 % 1014,5 hPa 0,0 l/m 5,5 km/h (2 Bft) N 360 3 min 708 W/m 19,7 C 25,4 C 12,9 km/h (3 Bft)
31.05.2018 12:06 25,4 C 67 % 1014,5 hPa 0,0 l/m 4,5 km/h (1 Bft) O-NO 76 3 min 691 W/m 18,8 C 25,4 C 9,7 km/h (2 Bft)
31.05.2018 12:09 25,5 C 69 % 1014,4 hPa 0,0 l/m 3,8 km/h (1 Bft) O 81 3 min 666 W/m 19,4 C 25,5 C 8,0 km/h (2 Bft)
31.05.2018 12:12 25,7 C 68 % 1014,3 hPa 0,0 l/m 3,8 km/h (1 Bft) N-NO 33 3 min 649 W/m 19,3 C 25,7 C 8,0 km/h (2 Bft)
31.05.2018 12:15 25,7 C 68 % 1014,4 hPa 0,0 l/m 5,7 km/h (2 Bft) O 80 3 min 622 W/m 19,3 C 25,7 C 12,9 km/h (3 Bft)
31.05.2018 12:18 25,6 C 66 % 1014,4 hPa 0,0 l/m 6,8 km/h (2 Bft) O-NO 65 3 min 612 W/m 18,8 C 25,5 C 12,9 km/h (3 Bft)
31.05.2018 12:21 25,9 C 67 % 1014,3 hPa 0,0 l/m 3,3 km/h (1 Bft) O-SO 105 3 min 599 W/m 19,3 C 25,9 C 6,4 km/h (2 Bft)
31.05.2018 12:24 26,1 C 65 % 1014,3 hPa 0,0 l/m 2,6 km/h (1 Bft) O-SO 121 3 min 599 W/m 19,0 C 26,1 C 6,4 km/h (2 Bft)
31.05.2018 12:27 26,1 C 64 % 1014,3 hPa 0,0 l/m 2,0 km/h (1 Bft) O 98 3 min 606 W/m 18,7 C 26,1 C 9,7 km/h (2 Bft)
31.05.2018 12:30 26,2 C 64 % 1014,3 hPa 0,0 l/m 4,6 km/h (1 Bft) N-NW 338 3 min 617 W/m 18,8 C 26,2 C 8,0 km/h (2 Bft)
31.05.2018 12:33 26,3 C 65 % 1014,3 hPa 0,0 l/m 3,0 km/h (1 Bft) O 93 3 min 643 W/m 19,2 C 26,3 C 9,7 km/h (2 Bft)
31.05.2018 12:36 26,2 C 63 % 1014,4 hPa 0,0 l/m 4,9 km/h (1 Bft) NO 47 3 min 666 W/m 18,6 C 26,2 C 11,3 km/h (2 Bft)
31.05.2018 12:39 26,3 C 65 % 1014,4 hPa 0,0 l/m 4,8 km/h (1 Bft) O-NO 67 3 min 698 W/m 19,2 C 26,3 C 9,7 km/h (2 Bft)
31.05.2018 12:42 26,4 C 63 % 1014,4 hPa 0,0 l/m 4,7 km/h (1 Bft) NO 34 3 min 721 W/m 18,8 C 26,4 C 9,7 km/h (2 Bft)
31.05.2018 12:45 26,6 C 65 % 1014,4 hPa 0,0 l/m 5,3 km/h (1 Bft) N-NO 33 3 min 747 W/m 19,5 C 26,6 C 11,3 km/h (2 Bft)
31.05.2018 12:48 26,6 C 63 % 1014,4 hPa 0,0 l/m 6,1 km/h (2 Bft) NO 37 3 min 765 W/m 19,0 C 26,6 C 12,9 km/h (3 Bft)
31.05.2018 12:51 26,7 C 62 % 1014,3 hPa 0,0 l/m 5,2 km/h (1 Bft) N-NW 344 3 min 777 W/m 18,8 C 26,7 C 11,3 km/h (2 Bft)
31.05.2018 12:54 26,8 C 64 % 1014,3 hPa 0,0 l/m 4,0 km/h (1 Bft) N-NO 29 3 min 784 W/m 19,4 C 26,8 C 11,3 km/h (2 Bft)
31.05.2018 12:57 26,9 C 65 % 1014,3 hPa 0,0 l/m 4,7 km/h (1 Bft) O-SO 121 3 min 784 W/m 19,7 C 26,9 C 9,7 km/h (2 Bft)
31.05.2018 13:00 27,0 C 62 % 1014,2 hPa 0,0 l/m 4,2 km/h (1 Bft) N-NW 330 3 min 782 W/m 19,1 C 27,0 C 11,3 km/h (2 Bft)
31.05.2018 13:03 26,9 C 65 % 1014,2 hPa 0,0 l/m 5,3 km/h (1 Bft) O-SO 107 3 min 784 W/m 19,7 C 26,9 C 8,0 km/h (2 Bft)
31.05.2018 13:06 27,1 C 63 % 1014,2 hPa 0,0 l/m 4,2 km/h (1 Bft) N 360 3 min 780 W/m 19,4 C 27,1 C 11,3 km/h (2 Bft)
31.05.2018 13:09 27,2 C 63 % 1014,2 hPa 0,0 l/m 5,1 km/h (1 Bft) N-NO 18 3 min 780 W/m 19,5 C 27,2 C 9,7 km/h (2 Bft)
31.05.2018 13:12 27,4 C 61 % 1014,1 hPa 0,0 l/m 3,6 km/h (1 Bft) N 11 3 min 780 W/m 19,2 C 27,4 C 8,0 km/h (2 Bft)
31.05.2018 13:15 27,3 C 62 % 1014,1 hPa 0,0 l/m 4,0 km/h (1 Bft) O-SO 112 3 min 780 W/m 19,4 C 27,3 C 9,7 km/h (2 Bft)
31.05.2018 13:18 27,3 C 62 % 1014,1 hPa 0,0 l/m 3,8 km/h (1 Bft) N 355 3 min 780 W/m 19,4 C 27,3 C 9,7 km/h (2 Bft)
31.05.2018 13:21 27,3 C 59 % 1014,1 hPa 0,0 l/m 5,8 km/h (2 Bft) NO 37 3 min 782 W/m 18,6 C 27,3 C 12,9 km/h (3 Bft)
31.05.2018 13:24 27,3 C 59 % 1014,1 hPa 0,0 l/m 2,8 km/h (1 Bft) O 101 3 min 784 W/m 18,6 C 27,3 C 6,4 km/h (2 Bft)
31.05.2018 13:27 27,4 C 62 % 1014,0 hPa 0,0 l/m 5,3 km/h (1 Bft) O 92 3 min 782 W/m 19,5 C 27,4 C 14,5 km/h (3 Bft)
31.05.2018 13:30 27,6 C 60 % 1013,9 hPa 0,0 l/m 5,3 km/h (1 Bft) O-NO 69 3 min 782 W/m 19,1 C 27,6 C 12,9 km/h (3 Bft)
31.05.2018 13:33 27,5 C 61 % 1013,9 hPa 0,0 l/m 4,5 km/h (1 Bft) SO 144 3 min 782 W/m 19,3 C 27,5 C 12,9 km/h (3 Bft)
31.05.2018 13:36 27,7 C 60 % 1013,9 hPa 0,0 l/m 5,3 km/h (1 Bft) O 93 3 min 779 W/m 19,2 C 27,7 C 16,1 km/h (3 Bft)
31.05.2018 13:39 27,7 C 61 % 1013,8 hPa 0,0 l/m 4,9 km/h (1 Bft) N-NO 13 3 min 775 W/m 19,5 C 27,7 C 11,3 km/h (2 Bft)
31.05.2018 13:42 27,8 C 61 % 1013,8 hPa 0,0 l/m 3,7 km/h (1 Bft) O 94 3 min 780 W/m 19,6 C 27,8 C 12,9 km/h (3 Bft)
31.05.2018 13:45 27,8 C 62 % 1013,8 hPa 0,0 l/m 4,8 km/h (1 Bft) N 355 3 min 784 W/m 19,8 C 27,8 C 14,5 km/h (3 Bft)
31.05.2018 13:48 27,9 C 61 % 1013,8 hPa 0,0 l/m 3,6 km/h (1 Bft) O 84 3 min 782 W/m 19,7 C 27,9 C 6,4 km/h (2 Bft)
31.05.2018 13:51 28,0 C 62 % 1013,8 hPa 0,0 l/m 4,7 km/h (1 Bft) N-NW 333 3 min 779 W/m 20,0 C 28,0 C 12,9 km/h (3 Bft)
31.05.2018 13:54 27,9 C 59 % 1013,8 hPa 0,0 l/m 5,3 km/h (1 Bft) O-SO 106 3 min 775 W/m 19,1 C 27,9 C 14,5 km/h (3 Bft)
31.05.2018 13:57 28,1 C 60 % 1013,7 hPa 0,0 l/m 4,4 km/h (1 Bft) O-NO 69 3 min 780 W/m 19,6 C 28,1 C 9,7 km/h (2 Bft)
31.05.2018 14:00 27,9 C 60 % 1013,7 hPa 0,0 l/m 3,5 km/h (1 Bft) N-NO 26 3 min 775 W/m 19,4 C 27,9 C 12,9 km/h (3 Bft)
31.05.2018 14:03 28,2 C 60 % 1013,7 hPa 0,0 l/m 5,3 km/h (1 Bft) N-NO 28 3 min 786 W/m 19,7 C 28,2 C 12,9 km/h (3 Bft)
31.05.2018 14:06 28,3 C 60 % 1013,7 hPa 0,0 l/m 4,3 km/h (1 Bft) N-NO 13 3 min 742 W/m 19,8 C 28,3 C 11,3 km/h (2 Bft)
31.05.2018 14:09 28,4 C 59 % 1013,8 hPa 0,0 l/m 5,5 km/h (2 Bft) NO 36 3 min 738 W/m 19,6 C 28,4 C 9,7 km/h (2 Bft)
31.05.2018 14:12 28,4 C 59 % 1013,8 hPa 0,0 l/m 3,3 km/h (1 Bft) O-SO 116 3 min 752 W/m 19,6 C 28,4 C 6,4 km/h (2 Bft)
31.05.2018 14:15 28,4 C 60 % 1013,7 hPa 0,0 l/m 3,8 km/h (1 Bft) O-SO 115 3 min 717 W/m 19,9 C 28,4 C 12,9 km/h (3 Bft)
31.05.2018 14:18 28,4 C 59 % 1013,7 hPa 0,0 l/m 4,9 km/h (1 Bft) NO 36 3 min 712 W/m 19,6 C 28,4 C 9,7 km/h (2 Bft)
31.05.2018 14:21 28,3 C 59 % 1013,7 hPa 0,0 l/m 3,1 km/h (1 Bft) N-NO 30 3 min 712 W/m 19,5 C 28,3 C 6,4 km/h (2 Bft)
31.05.2018 14:24 28,4 C 60 % 1013,7 hPa 0,0 l/m 5,7 km/h (2 Bft) N-NW 339 3 min 752 W/m 19,9 C 28,4 C 11,3 km/h (2 Bft)
31.05.2018 14:27 28,6 C 60 % 1013,7 hPa 0,0 l/m 3,6 km/h (1 Bft) NO 54 3 min 747 W/m 20,1 C 28,6 C 8,0 km/h (2 Bft)
31.05.2018 14:30 28,6 C 60 % 1013,7 hPa 0,0 l/m 3,5 km/h (1 Bft) NO 34 3 min 754 W/m 20,1 C 28,6 C 9,7 km/h (2 Bft)
31.05.2018 14:33 28,7 C 57 % 1013,6 hPa 0,0 l/m 4,7 km/h (1 Bft) O-NO 57 3 min 742 W/m 19,3 C 28,7 C 9,7 km/h (2 Bft)
31.05.2018 14:36 28,8 C 58 % 1013,7 hPa 0,0 l/m 3,8 km/h (1 Bft) NW 312 3 min 742 W/m 19,7 C 28,8 C 8,0 km/h (2 Bft)
31.05.2018 14:39 28,8 C 57 % 1013,6 hPa 0,0 l/m 4,9 km/h (1 Bft) N-NO 22 3 min 735 W/m 19,4 C 28,8 C 11,3 km/h (2 Bft)
31.05.2018 14:42 28,7 C 58 % 1013,6 hPa 0,0 l/m 4,5 km/h (1 Bft) O-NO 60 3 min 733 W/m 19,6 C 28,7 C 16,1 km/h (3 Bft)
31.05.2018 14:45 28,6 C 57 % 1013,6 hPa 0,0 l/m 4,0 km/h (1 Bft) NO 35 3 min 737 W/m 19,2 C 28,6 C 9,7 km/h (2 Bft)
31.05.2018 14:48 28,7 C 58 % 1013,6 hPa 0,0 l/m 5,4 km/h (2 Bft) S 169 3 min 737 W/m 19,6 C 28,7 C 14,5 km/h (3 Bft)
31.05.2018 14:51 28,7 C 58 % 1013,6 hPa 0,0 l/m 5,1 km/h (1 Bft) NO 36 3 min 737 W/m 19,6 C 28,7 C 12,9 km/h (3 Bft)
31.05.2018 14:54 28,8 C 60 % 1013,5 hPa 0,0 l/m 3,2 km/h (1 Bft) N-NW 338 3 min 729 W/m 20,2 C 28,8 C 6,4 km/h (2 Bft)
31.05.2018 14:57 28,8 C 56 % 1013,5 hPa 0,0 l/m 6,3 km/h (2 Bft) O 80 3 min 733 W/m 19,1 C 28,8 C 11,3 km/h (2 Bft)
31.05.2018 15:00 28,8 C 57 % 1013,5 hPa 0,0 l/m 5,0 km/h (1 Bft) S-SW 199 3 min 728 W/m 19,4 C 28,8 C 12,9 km/h (3 Bft)
31.05.2018 15:03 29,2 C 56 % 1013,5 hPa 0,0 l/m 5,7 km/h (2 Bft) NO 39 3 min 726 W/m 19,5 C 29,2 C 16,1 km/h (3 Bft)
31.05.2018 15:06 29,3 C 56 % 1013,5 hPa 0,0 l/m 4,3 km/h (1 Bft) O-NO 57 3 min 721 W/m 19,6 C 29,3 C 8,0 km/h (2 Bft)
31.05.2018 15:09 29,4 C 55 % 1013,5 hPa 0,0 l/m 6,1 km/h (2 Bft) NO 47 3 min 719 W/m 19,4 C 29,4 C 17,7 km/h (3 Bft)
31.05.2018 15:12 29,3 C 57 % 1013,5 hPa 0,0 l/m 4,5 km/h (1 Bft) N 350 3 min 714 W/m 19,9 C 29,3 C 16,1 km/h (3 Bft)
31.05.2018 15:15 29,2 C 54 % 1013,5 hPa 0,0 l/m 5,7 km/h (2 Bft) N-NO 25 3 min 705 W/m 18,9 C 29,2 C 12,9 km/h (3 Bft)
31.05.2018 15:18 29,1 C 56 % 1013,4 hPa 0,0 l/m 4,3 km/h (1 Bft) O-NO 58 3 min 703 W/m 19,4 C 29,1 C 11,3 km/h (2 Bft)
31.05.2018 15:21 29,2 C 55 % 1013,4 hPa 0,0 l/m 6,1 km/h (2 Bft) NW 322 3 min 687 W/m 19,2 C 29,2 C 12,9 km/h (3 Bft)
31.05.2018 15:24 29,3 C 55 % 1013,3 hPa 0,0 l/m 4,2 km/h (1 Bft) N-NW 330 3 min 691 W/m 19,3 C 29,3 C 14,5 km/h (3 Bft)
31.05.2018 15:27 29,5 C 56 % 1013,4 hPa 0,0 l/m 3,6 km/h (1 Bft) N-NW 348 3 min 687 W/m 19,8 C 29,5 C 11,3 km/h (2 Bft)
31.05.2018 15:30 29,4 C 54 % 1013,3 hPa 0,0 l/m 4,2 km/h (1 Bft) NO 44 3 min 687 W/m 19,1 C 29,4 C 9,7 km/h (2 Bft)
31.05.2018 15:33 29,7 C 54 % 1013,3 hPa 0,0 l/m 4,1 km/h (1 Bft) N 360 3 min 679 W/m 19,4 C 29,7 C 9,7 km/h (2 Bft)
31.05.2018 15:36 29,6 C 52 % 1013,2 hPa 0,0 l/m 6,3 km/h (2 Bft) O-NO 66 3 min 684 W/m 18,7 C 29,6 C 16,1 km/h (3 Bft)
31.05.2018 15:39 29,5 C 51 % 1013,2 hPa 0,0 l/m 5,3 km/h (1 Bft) S 173 3 min 668 W/m 18,3 C 29,5 C 12,9 km/h (3 Bft)
31.05.2018 15:42 29,5 C 52 % 1013,2 hPa 0,0 l/m 4,3 km/h (1 Bft) N-NO 17 3 min 656 W/m 18,6 C 29,5 C 9,7 km/h (2 Bft)
31.05.2018 15:45 29,7 C 54 % 1013,2 hPa 0,0 l/m 4,2 km/h (1 Bft) N-NO 23 3 min 656 W/m 19,4 C 29,7 C 12,9 km/h (3 Bft)
31.05.2018 15:48 29,6 C 53 % 1013,2 hPa 0,0 l/m 6,1 km/h (2 Bft) N-NO 26 3 min 656 W/m 19,0 C 29,6 C 17,7 km/h (3 Bft)
31.05.2018 15:51 29,7 C 52 % 1013,2 hPa 0,0 l/m 4,8 km/h (1 Bft) NO 51 3 min 657 W/m 18,8 C 29,7 C 11,3 km/h (2 Bft)
31.05.2018 15:54 29,8 C 52 % 1013,2 hPa 0,0 l/m 5,0 km/h (1 Bft) NO 39 3 min 647 W/m 18,9 C 29,8 C 12,9 km/h (3 Bft)
31.05.2018 15:57 29,7 C 52 % 1013,1 hPa 0,0 l/m 4,2 km/h (1 Bft) N 5 3 min 624 W/m 18,8 C 29,7 C 11,3 km/h (2 Bft)
31.05.2018 16:00 29,7 C 51 % 1013,1 hPa 0,0 l/m 3,9 km/h (1 Bft) NO 49 3 min 626 W/m 18,5 C 29,7 C 11,3 km/h (2 Bft)
31.05.2018 16:03 29,6 C 53 % 1013,2 hPa 0,0 l/m 2,9 km/h (1 Bft) O-SO 109 3 min 612 W/m 19,0 C 29,6 C 8,0 km/h (2 Bft)
31.05.2018 16:06 29,7 C 51 % 1013,1 hPa 0,0 l/m 3,1 km/h (1 Bft) N 5 3 min 598 W/m 18,5 C 29,7 C 11,3 km/h (2 Bft)
31.05.2018 16:09 29,8 C 54 % 1013,1 hPa 0,0 l/m 2,0 km/h (1 Bft) O-SO 107 3 min 599 W/m 19,5 C 29,8 C 6,4 km/h (2 Bft)
31.05.2018 16:12 29,8 C 52 % 1013,1 hPa 0,0 l/m 4,1 km/h (1 Bft) NO 46 3 min 599 W/m 18,9 C 29,8 C 8,0 km/h (2 Bft)
31.05.2018 16:15 29,8 C 51 % 1013,1 hPa 0,0 l/m 3,8 km/h (1 Bft) NO 39 3 min 592 W/m 18,5 C 29,8 C 8,0 km/h (2 Bft)
31.05.2018 16:18 29,6 C 52 % 1013,1 hPa 0,0 l/m 3,9 km/h (1 Bft) NO 40 3 min 552 W/m 18,7 C 29,6 C 9,7 km/h (2 Bft)
31.05.2018 16:21 29,7 C 51 % 1013,1 hPa 0,0 l/m 3,6 km/h (1 Bft) O 81 3 min 548 W/m 18,5 C 29,7 C 8,0 km/h (2 Bft)
31.05.2018 16:24 29,9 C 52 % 1013,0 hPa 0,0 l/m 3,2 km/h (1 Bft) NO 44 3 min 503 W/m 19,0 C 29,9 C 6,4 km/h (2 Bft)
31.05.2018 16:27 29,7 C 50 % 1013,0 hPa 0,0 l/m 3,7 km/h (1 Bft) O-NO 65 3 min 476 W/m 18,1 C 29,7 C 9,7 km/h (2 Bft)
31.05.2018 16:30 29,5 C 53 % 1013,0 hPa 0,0 l/m 4,1 km/h (1 Bft) S-SO 163 3 min 522 W/m 18,9 C 29,5 C 9,7 km/h (2 Bft)
31.05.2018 16:33 29,4 C 51 % 1013,1 hPa 0,0 l/m 4,5 km/h (1 Bft) O 83 3 min 541 W/m 18,2 C 29,4 C 9,7 km/h (2 Bft)
31.05.2018 16:36 29,7 C 54 % 1013,0 hPa 0,0 l/m 4,9 km/h (1 Bft) NO 51 3 min 557 W/m 19,4 C 29,7 C 12,9 km/h (3 Bft)
31.05.2018 16:39 29,7 C 52 % 1013,0 hPa 0,0 l/m 5,0 km/h (1 Bft) N 5 3 min 575 W/m 18,8 C 29,7 C 12,9 km/h (3 Bft)
31.05.2018 16:42 29,7 C 51 % 1013,2 hPa 0,0 l/m 4,0 km/h (1 Bft) N-NW 344 3 min 575 W/m 18,5 C 29,7 C 8,0 km/h (2 Bft)
31.05.2018 16:45 29,8 C 52 % 1013,1 hPa 0,0 l/m 3,0 km/h (1 Bft) NO 40 3 min 568 W/m 18,9 C 29,8 C 8,0 km/h (2 Bft)
31.05.2018 16:48 29,9 C 52 % 1013,2 hPa 0,0 l/m 3,3 km/h (1 Bft) N-NO 24 3 min 561 W/m 19,0 C 29,9 C 8,0 km/h (2 Bft)
31.05.2018 16:51 29,9 C 53 % 1013,1 hPa 0,0 l/m 4,2 km/h (1 Bft) N 5 3 min 555 W/m 19,3 C 29,9 C 8,0 km/h (2 Bft)
31.05.2018 16:54 29,7 C 56 % 1013,1 hPa 0,0 l/m 4,3 km/h (1 Bft) NW 321 3 min 548 W/m 20,0 C 29,7 C 8,0 km/h (2 Bft)
31.05.2018 16:57 29,3 C 57 % 1013,1 hPa 0,0 l/m 4,3 km/h (1 Bft) N-NW 336 3 min 531 W/m 19,9 C 29,3 C 9,7 km/h (2 Bft)
31.05.2018 17:00 29,1 C 58 % 1013,1 hPa 0,0 l/m 3,0 km/h (1 Bft) N-NO 20 3 min 536 W/m 20,0 C 29,1 C 6,4 km/h (2 Bft)
31.05.2018 17:03 28,8 C 60 % 1013,1 hPa 0,0 l/m 3,5 km/h (1 Bft) N-NW 345 3 min 524 W/m 20,2 C 28,8 C 9,7 km/h (2 Bft)
31.05.2018 17:06 28,8 C 61 % 1013,1 hPa 0,0 l/m 3,4 km/h (1 Bft) N-NW 340 3 min 519 W/m 20,5 C 28,8 C 8,0 km/h (2 Bft)
31.05.2018 17:09 28,9 C 59 % 1013,2 hPa 0,0 l/m 5,0 km/h (1 Bft) N 360 3 min 517 W/m 20,1 C 28,9 C 9,7 km/h (2 Bft)
31.05.2018 17:12 28,9 C 58 % 1013,1 hPa 0,0 l/m 5,8 km/h (2 Bft) NW 313 3 min 506 W/m 19,8 C 28,9 C 9,7 km/h (2 Bft)
31.05.2018 17:15 29,0 C 58 % 1013,0 hPa 0,0 l/m 4,8 km/h (1 Bft) N 360 3 min 499 W/m 19,9 C 29,0 C 8,0 km/h (2 Bft)
31.05.2018 17:18 28,9 C 58 % 1013,1 hPa 0,0 l/m 7,4 km/h (2 Bft) N-NO 17 3 min 487 W/m 19,8 C 28,8 C 16,1 km/h (3 Bft)
31.05.2018 17:21 28,7 C 59 % 1013,1 hPa 0,0 l/m 7,2 km/h (2 Bft) N-NW 331 3 min 483 W/m 19,9 C 28,6 C 12,9 km/h (3 Bft)
31.05.2018 17:24 28,6 C 60 % 1013,0 hPa 0,0 l/m 6,9 km/h (2 Bft) N 351 3 min 478 W/m 20,1 C 28,5 C 12,9 km/h (3 Bft)
31.05.2018 17:27 28,4 C 60 % 1013,0 hPa 0,0 l/m 5,4 km/h (2 Bft) N-NO 28 3 min 469 W/m 19,9 C 28,4 C 12,9 km/h (3 Bft)
31.05.2018 17:30 28,5 C 61 % 1013,1 hPa 0,0 l/m 3,6 km/h (1 Bft) N-NO 13 3 min 452 W/m 20,2 C 28,5 C 8,0 km/h (2 Bft)
31.05.2018 17:33 28,7 C 59 % 1013,0 hPa 0,0 l/m 4,8 km/h (1 Bft) W 265 3 min 439 W/m 19,9 C 28,7 C 12,9 km/h (3 Bft)
31.05.2018 17:36 28,8 C 59 % 1013,1 hPa 0,0 l/m 5,2 km/h (1 Bft) O-NO 76 3 min 438 W/m 20,0 C 28,8 C 11,3 km/h (2 Bft)
31.05.2018 17:39 28,7 C 60 % 1013,1 hPa 0,0 l/m 6,6 km/h (2 Bft) N-NO 15 3 min 431 W/m 20,1 C 28,7 C 14,5 km/h (3 Bft)
31.05.2018 17:42 28,6 C 61 % 1013,1 hPa 0,0 l/m 7,6 km/h (2 Bft) W-NW 298 3 min 417 W/m 20,3 C 28,4 C 16,1 km/h (3 Bft)
31.05.2018 17:45 28,4 C 63 % 1013,1 hPa 0,0 l/m 4,9 km/h (1 Bft) NW 306 3 min 420 W/m 20,7 C 28,4 C 8,0 km/h (2 Bft)
31.05.2018 17:48 28,2 C 64 % 1013,1 hPa 0,0 l/m 6,7 km/h (2 Bft) N 10 3 min 418 W/m 20,7 C 28,2 C 14,5 km/h (3 Bft)
31.05.2018 17:51 28,4 C 64 % 1013,0 hPa 0,0 l/m 5,2 km/h (1 Bft) N-NW 345 3 min 411 W/m 20,9 C 28,4 C 12,9 km/h (3 Bft)
31.05.2018 17:54 28,3 C 64 % 1012,9 hPa 0,0 l/m 7,5 km/h (2 Bft) NO 52 3 min 403 W/m 20,8 C 28,1 C 17,7 km/h (3 Bft)
31.05.2018 17:57 28,1 C 66 % 1012,9 hPa 0,0 l/m 5,0 km/h (1 Bft) NW 316 3 min 394 W/m 21,1 C 28,1 C 9,7 km/h (2 Bft)
31.05.2018 18:00 28,1 C 65 % 1012,9 hPa 0,0 l/m 4,7 km/h (1 Bft) NW 325 3 min 383 W/m 20,9 C 28,1 C 9,7 km/h (2 Bft)
31.05.2018 18:03 28,2 C 65 % 1012,9 hPa 0,0 l/m 5,6 km/h (2 Bft) N 355 3 min 383 W/m 21,0 C 28,2 C 12,9 km/h (3 Bft)
31.05.2018 18:06 28,2 C 65 % 1012,8 hPa 0,0 l/m 5,2 km/h (1 Bft) N-NW 345 3 min 373 W/m 21,0 C 28,2 C 14,5 km/h (3 Bft)
31.05.2018 18:09 28,1 C 66 % 1012,9 hPa 0,0 l/m 4,9 km/h (1 Bft) N-NO 23 3 min 369 W/m 21,1 C 28,1 C 8,0 km/h (2 Bft)
31.05.2018 18:12 28,1 C 66 % 1012,8 hPa 0,0 l/m 5,7 km/h (2 Bft) N-NW 334 3 min 367 W/m 21,1 C 28,1 C 14,5 km/h (3 Bft)
31.05.2018 18:15 27,9 C 67 % 1012,9 hPa 0,0 l/m 5,0 km/h (1 Bft) N 351 3 min 359 W/m 21,2 C 27,9 C 8,0 km/h (2 Bft)
31.05.2018 18:18 27,8 C 68 % 1012,9 hPa 0,0 l/m 3,4 km/h (1 Bft) NW 316 3 min 348 W/m 21,3 C 27,8 C 8,0 km/h (2 Bft)
31.05.2018 18:21 27,8 C 67 % 1012,9 hPa 0,0 l/m 5,6 km/h (2 Bft) NW 305 3 min 352 W/m 21,1 C 27,8 C 16,1 km/h (3 Bft)
31.05.2018 18:24 27,7 C 67 % 1012,8 hPa 0,0 l/m 6,0 km/h (2 Bft) N-NO 31 3 min 346 W/m 21,0 C 27,7 C 11,3 km/h (2 Bft)
31.05.2018 18:27 27,7 C 66 % 1012,8 hPa 0,0 l/m 5,4 km/h (2 Bft) NW 310 3 min 341 W/m 20,8 C 27,7 C 11,3 km/h (2 Bft)
31.05.2018 18:30 27,6 C 67 % 1012,9 hPa 0,0 l/m 5,8 km/h (2 Bft) W-NW 298 3 min 334 W/m 20,9 C 27,6 C 14,5 km/h (3 Bft)
31.05.2018 18:33 27,6 C 67 % 1012,8 hPa 0,0 l/m 4,8 km/h (1 Bft) W 271 3 min 308 W/m 20,9 C 27,6 C 11,3 km/h (2 Bft)
31.05.2018 18:36 27,6 C 67 % 1012,9 hPa 0,0 l/m 6,1 km/h (2 Bft) W 275 0 min 123 W/m 20,9 C 27,6 C 12,9 km/h (3 Bft)
31.05.2018 18:39 27,5 C 67 % 1013,0 hPa 0,0 l/m 7,1 km/h (2 Bft) N-NO 24 0 min 118 W/m 20,8 C 27,4 C 22,5 km/h (4 Bft)
31.05.2018 18:42 27,4 C 67 % 1013,0 hPa 0,0 l/m 5,4 km/h (2 Bft) NW 320 0 min 111 W/m 20,7 C 27,4 C 14,5 km/h (3 Bft)
31.05.2018 18:45 27,2 C 68 % 1013,0 hPa 0,0 l/m 6,4 km/h (2 Bft) N-NW 344 0 min 105 W/m 20,8 C 27,2 C 14,5 km/h (3 Bft)
31.05.2018 18:48 27,1 C 68 % 1013,0 hPa 0,0 l/m 4,7 km/h (1 Bft) N 9 0 min 128 W/m 20,7 C 27,1 C 12,9 km/h (3 Bft)
31.05.2018 18:51 27,0 C 69 % 1013,0 hPa 0,0 l/m 4,3 km/h (1 Bft) N 360 0 min 98 W/m 20,8 C 27,0 C 8,0 km/h (2 Bft)
31.05.2018 18:54 26,9 C 69 % 1012,9 hPa 0,0 l/m 4,1 km/h (1 Bft) N-NW 340 0 min 100 W/m 20,7 C 26,9 C 11,3 km/h (2 Bft)
31.05.2018 18:57 26,7 C 70 % 1012,9 hPa 0,0 l/m 4,2 km/h (1 Bft) NO 36 0 min 95 W/m 20,8 C 26,7 C 9,7 km/h (2 Bft)
31.05.2018 19:00 26,4 C 70 % 1012,9 hPa 0,0 l/m 4,7 km/h (1 Bft) NW 323 0 min 93 W/m 20,5 C 26,4 C 14,5 km/h (3 Bft)
31.05.2018 19:03 26,4 C 70 % 1013,0 hPa 0,0 l/m 5,1 km/h (1 Bft) N-NO 19 0 min 93 W/m 20,5 C 26,4 C 11,3 km/h (2 Bft)
31.05.2018 19:06 26,4 C 70 % 1012,9 hPa 0,0 l/m 4,4 km/h (1 Bft) NO 51 0 min 91 W/m 20,5 C 26,4 C 12,9 km/h (3 Bft)
31.05.2018 19:09 26,4 C 70 % 1012,9 hPa 0,0 l/m 3,9 km/h (1 Bft) O-NO 71 0 min 90 W/m 20,5 C 26,4 C 6,4 km/h (2 Bft)
31.05.2018 19:12 26,4 C 68 % 1012,8 hPa 0,0 l/m 3,8 km/h (1 Bft) N 11 0 min 86 W/m 20,0 C 26,4 C 8,0 km/h (2 Bft)
31.05.2018 19:15 26,3 C 69 % 1012,8 hPa 0,0 l/m 4,5 km/h (1 Bft) N 5 0 min 86 W/m 20,1 C 26,3 C 14,5 km/h (3 Bft)
31.05.2018 19:18 26,2 C 69 % 1012,8 hPa 0,0 l/m 4,4 km/h (1 Bft) N-NO 16 0 min 86 W/m 20,0 C 26,2 C 12,9 km/h (3 Bft)
31.05.2018 19:21 26,2 C 70 % 1012,8 hPa 0,0 l/m 4,1 km/h (1 Bft) N-NO 22 0 min 84 W/m 20,3 C 26,2 C 8,0 km/h (2 Bft)
31.05.2018 19:24 26,1 C 71 % 1012,9 hPa 0,0 l/m 3,2 km/h (1 Bft) N 355 0 min 81 W/m 20,4 C 26,1 C 11,3 km/h (2 Bft)
31.05.2018 19:27 25,9 C 70 % 1012,9 hPa 0,0 l/m 3,5 km/h (1 Bft) N-NO 26 0 min 76 W/m 20,0 C 25,9 C 9,7 km/h (2 Bft)
31.05.2018 19:30 25,9 C 71 % 1013,0 hPa 0,0 l/m 4,8 km/h (1 Bft) N-NW 327 0 min 72 W/m 20,2 C 25,9 C 16,1 km/h (3 Bft)
31.05.2018 19:33 25,8 C 71 % 1013,0 hPa 0,0 l/m 3,1 km/h (1 Bft) N 355 0 min 70 W/m 20,1 C 25,8 C 8,0 km/h (2 Bft)
31.05.2018 19:36 25,8 C 71 % 1013,0 hPa 0,0 l/m 3,7 km/h (1 Bft) N-NO 18 0 min 70 W/m 20,1 C 25,8 C 8,0 km/h (2 Bft)
31.05.2018 19:39 25,6 C 72 % 1013,0 hPa 0,0 l/m 4,9 km/h (1 Bft) N-NW 340 0 min 69 W/m 20,2 C 25,6 C 12,9 km/h (3 Bft)
31.05.2018 19:42 25,4 C 72 % 1012,9 hPa 0,0 l/m 2,9 km/h (1 Bft) N 355 0 min 70 W/m 20,0 C 25,4 C 12,9 km/h (3 Bft)
31.05.2018 19:45 25,3 C 72 % 1012,9 hPa 0,0 l/m 3,9 km/h (1 Bft) S-SW 199 0 min 70 W/m 19,9 C 25,3 C 8,0 km/h (2 Bft)
31.05.2018 19:48 25,3 C 71 % 1012,9 hPa 0,0 l/m 5,3 km/h (1 Bft) NO 51 0 min 70 W/m 19,7 C 25,3 C 12,9 km/h (3 Bft)
31.05.2018 19:51 25,2 C 71 % 1013,0 hPa 0,0 l/m 4,5 km/h (1 Bft) N-NO 21 0 min 70 W/m 19,6 C 25,2 C 9,7 km/h (2 Bft)
31.05.2018 19:54 25,3 C 70 % 1013,0 hPa 0,0 l/m 4,5 km/h (1 Bft) N 355 0 min 69 W/m 19,4 C 25,3 C 11,3 km/h (2 Bft)
31.05.2018 19:57 25,3 C 69 % 1013,0 hPa 0,0 l/m 4,9 km/h (1 Bft) N-NO 17 0 min 67 W/m 19,2 C 25,3 C 9,7 km/h (2 Bft)
31.05.2018 20:00 25,3 C 69 % 1013,0 hPa 0,0 l/m 5,1 km/h (1 Bft) O-NO 77 0 min 65 W/m 19,2 C 25,3 C 9,7 km/h (2 Bft)
31.05.2018 20:03 25,2 C 69 % 1013,1 hPa 0,0 l/m 4,1 km/h (1 Bft) N-NW 336 0 min 62 W/m 19,1 C 25,2 C 8,0 km/h (2 Bft)
31.05.2018 20:06 25,2 C 69 % 1013,1 hPa 0,0 l/m 4,0 km/h (1 Bft) N 360 0 min 60 W/m 19,1 C 25,2 C 9,7 km/h (2 Bft)
31.05.2018 20:09 25,1 C 71 % 1013,2 hPa 0,0 l/m 4,5 km/h (1 Bft) NO 44 0 min 58 W/m 19,5 C 25,1 C 17,7 km/h (3 Bft)
31.05.2018 20:12 24,9 C 71 % 1013,2 hPa 0,0 l/m 5,1 km/h (1 Bft) W-SW 237 0 min 56 W/m 19,3 C 24,9 C 12,9 km/h (3 Bft)
31.05.2018 20:15 24,8 C 71 % 1013,2 hPa 0,0 l/m 4,7 km/h (1 Bft) NO 46 0 min 54 W/m 19,2 C 24,8 C 9,7 km/h (2 Bft)
31.05.2018 20:18 24,8 C 72 % 1013,2 hPa 0,0 l/m 3,2 km/h (1 Bft) W 266 0 min 53 W/m 19,4 C 24,8 C 6,4 km/h (2 Bft)
31.05.2018 20:21 24,7 C 72 % 1013,2 hPa 0,0 l/m 4,1 km/h (1 Bft) N 5 0 min 49 W/m 19,3 C 24,7 C 14,5 km/h (3 Bft)
31.05.2018 20:24 24,6 C 72 % 1013,2 hPa 0,0 l/m 4,1 km/h (1 Bft) NW 319 0 min 46 W/m 19,2 C 24,6 C 11,3 km/h (2 Bft)
31.05.2018 20:27 24,5 C 72 % 1013,1 hPa 0,0 l/m 5,7 km/h (2 Bft) O 82 0 min 42 W/m 19,1 C 24,5 C 16,1 km/h (3 Bft)
31.05.2018 20:30 24,4 C 72 % 1013,1 hPa 0,0 l/m 5,6 km/h (2 Bft) O 94 0 min 39 W/m 19,0 C 24,4 C 14,5 km/h (3 Bft)
31.05.2018 20:33 24,3 C 73 % 1013,1 hPa 0,0 l/m 4,0 km/h (1 Bft) W 264 0 min 35 W/m 19,1 C 24,3 C 12,9 km/h (3 Bft)
31.05.2018 20:36 24,3 C 72 % 1013,2 hPa 0,0 l/m 5,0 km/h (1 Bft) NW 306 0 min 33 W/m 18,9 C 24,3 C 11,3 km/h (2 Bft)
31.05.2018 20:39 24,3 C 73 % 1013,2 hPa 0,0 l/m 3,4 km/h (1 Bft) SW 217 0 min 30 W/m 19,1 C 24,3 C 6,4 km/h (2 Bft)
31.05.2018 20:42 24,2 C 73 % 1013,2 hPa 0,0 l/m 3,8 km/h (1 Bft) N-NO 15 0 min 28 W/m 19,0 C 24,2 C 11,3 km/h (2 Bft)
31.05.2018 20:45 24,1 C 73 % 1013,3 hPa 0,0 l/m 4,5 km/h (1 Bft) O 88 0 min 26 W/m 18,9 C 24,1 C 11,3 km/h (2 Bft)
31.05.2018 20:48 24,1 C 73 % 1013,3 hPa 0,0 l/m 3,7 km/h (1 Bft) NW 304 0 min 23 W/m 18,9 C 24,1 C 12,9 km/h (3 Bft)
31.05.2018 20:51 24,0 C 73 % 1013,3 hPa 0,0 l/m 5,1 km/h (1 Bft) NO 42 0 min 21 W/m 18,9 C 24,0 C 12,9 km/h (3 Bft)
31.05.2018 20:54 23,9 C 73 % 1013,3 hPa 0,0 l/m 3,4 km/h (1 Bft) O-NO 60 0 min 21 W/m 18,8 C 23,9 C 8,0 km/h (2 Bft)
31.05.2018 20:57 23,7 C 74 % 1013,3 hPa 0,0 l/m 3,9 km/h (1 Bft) N 5 0 min 19 W/m 18,8 C 23,7 C 12,9 km/h (3 Bft)
31.05.2018 21:00 23,6 C 74 % 1013,3 hPa 0,0 l/m 2,5 km/h (1 Bft) NO 50 0 min 18 W/m 18,7 C 23,6 C 6,4 km/h (2 Bft)
31.05.2018 21:03 23,6 C 74 % 1013,3 hPa 0,0 l/m 4,1 km/h (1 Bft) N 9 0 min 16 W/m 18,7 C 23,6 C 14,5 km/h (3 Bft)
31.05.2018 21:06 23,5 C 75 % 1013,3 hPa 0,0 l/m 3,6 km/h (1 Bft) O-NO 69 0 min 16 W/m 18,8 C 23,5 C 8,0 km/h (2 Bft)
31.05.2018 21:09 23,4 C 75 % 1013,4 hPa 0,0 l/m 3,8 km/h (1 Bft) NO 43 0 min 14 W/m 18,7 C 23,4 C 11,3 km/h (2 Bft)
31.05.2018 21:12 23,3 C 75 % 1013,5 hPa 0,0 l/m 2,7 km/h (1 Bft) S-SO 159 0 min 12 W/m 18,6 C 23,3 C 9,7 km/h (2 Bft)
31.05.2018 21:15 23,3 C 75 % 1013,4 hPa 0,0 l/m 2,8 km/h (1 Bft) NO 55 0 min 12 W/m 18,6 C 23,3 C 6,4 km/h (2 Bft)
31.05.2018 21:18 23,1 C 75 % 1013,5 hPa 0,0 l/m 4,0 km/h (1 Bft) N-NO 31 0 min 11 W/m 18,4 C 23,1 C 11,3 km/h (2 Bft)
31.05.2018 21:21 23,1 C 76 % 1013,5 hPa 0,0 l/m 3,3 km/h (1 Bft) N-NO 24 0 min 9 W/m 18,6 C 23,1 C 9,7 km/h (2 Bft)
31.05.2018 21:24 22,9 C 76 % 1013,5 hPa 0,0 l/m 3,6 km/h (1 Bft) NO 38 0 min 7 W/m 18,4 C 22,9 C 6,4 km/h (2 Bft)
31.05.2018 21:27 22,9 C 76 % 1013,6 hPa 0,0 l/m 2,8 km/h (1 Bft) N 5 0 min 7 W/m 18,4 C 22,9 C 6,4 km/h (2 Bft)
31.05.2018 21:30 22,9 C 76 % 1013,7 hPa 0,0 l/m 4,7 km/h (1 Bft) S 176 0 min 5 W/m 18,4 C 22,9 C 14,5 km/h (3 Bft)
31.05.2018 21:33 22,8 C 76 % 1013,7 hPa 0,0 l/m 4,6 km/h (1 Bft) O 98 0 min 0 W/m 18,3 C 22,8 C 8,0 km/h (2 Bft)
31.05.2018 21:36 22,7 C 76 % 1013,7 hPa 0,0 l/m 3,4 km/h (1 Bft) O-SO 115 0 min 0 W/m 18,2 C 22,7 C 6,4 km/h (2 Bft)
31.05.2018 21:39 22,7 C 77 % 1013,7 hPa 0,0 l/m 2,8 km/h (1 Bft) N-NW 345 0 min 0 W/m 18,5 C 22,7 C 8,0 km/h (2 Bft)
31.05.2018 21:42 22,6 C 77 % 1013,7 hPa 0,0 l/m 2,3 km/h (1 Bft) O-SO 109 0 min 0 W/m 18,4 C 22,6 C 4,8 km/h (1 Bft)
31.05.2018 21:45 22,4 C 77 % 1013,7 hPa 0,0 l/m 3,3 km/h (1 Bft) N-NO 32 0 min 0 W/m 18,2 C 22,4 C 9,7 km/h (2 Bft)
31.05.2018 21:48 22,3 C 77 % 1013,7 hPa 0,0 l/m 3,8 km/h (1 Bft) W-SW 250 0 min 0 W/m 18,1 C 22,3 C 11,3 km/h (2 Bft)
31.05.2018 21:51 22,2 C 78 % 1013,6 hPa 0,0 l/m 3,7 km/h (1 Bft) N-NO 26 0 min 0 W/m 18,2 C 22,2 C 9,7 km/h (2 Bft)
31.05.2018 21:54 22,1 C 78 % 1013,6 hPa 0,0 l/m 2,4 km/h (1 Bft) S-SW 213 0 min 0 W/m 18,1 C 22,1 C 6,4 km/h (2 Bft)
31.05.2018 21:57 22,0 C 78 % 1013,6 hPa 0,0 l/m 3,0 km/h (1 Bft) O-SO 103 0 min 0 W/m 18,0 C 22,0 C 9,7 km/h (2 Bft)
31.05.2018 22:00 21,9 C 79 % 1013,6 hPa 0,0 l/m 3,0 km/h (1 Bft) N-NO 19 0 min 0 W/m 18,1 C 21,9 C 8,0 km/h (2 Bft)
31.05.2018 22:03 21,8 C 79 % 1013,6 hPa 0,0 l/m 3,4 km/h (1 Bft) O-NO 78 0 min 0 W/m 18,0 C 21,8 C 9,7 km/h (2 Bft)
31.05.2018 22:06 21,7 C 80 % 1013,6 hPa 0,0 l/m 2,7 km/h (1 Bft) NO 40 0 min 0 W/m 18,1 C 21,7 C 6,4 km/h (2 Bft)
31.05.2018 22:09 21,7 C 80 % 1013,6 hPa 0,0 l/m 3,6 km/h (1 Bft) O-NO 62 0 min 0 W/m 18,1 C 21,7 C 8,0 km/h (2 Bft)
31.05.2018 22:12 21,6 C 80 % 1013,6 hPa 0,0 l/m 3,3 km/h (1 Bft) N-NO 13 0 min 0 W/m 18,0 C 21,6 C 9,7 km/h (2 Bft)
31.05.2018 22:15 21,5 C 80 % 1013,6 hPa 0,0 l/m 3,7 km/h (1 Bft) NO 42 0 min 0 W/m 17,9 C 21,5 C 12,9 km/h (3 Bft)
31.05.2018 22:18 21,4 C 81 % 1013,5 hPa 0,0 l/m 4,1 km/h (1 Bft) NO 34 0 min 0 W/m 18,0 C 21,4 C 9,7 km/h (2 Bft)
31.05.2018 22:21 21,3 C 81 % 1013,5 hPa 0,0 l/m 3,7 km/h (1 Bft) O-SO 102 0 min 0 W/m 17,9 C 21,3 C 11,3 km/h (2 Bft)
31.05.2018 22:24 21,3 C 81 % 1013,6 hPa 0,0 l/m 3,4 km/h (1 Bft) NO 38 0 min 0 W/m 17,9 C 21,3 C 8,0 km/h (2 Bft)
31.05.2018 22:27 21,2 C 81 % 1013,5 hPa 0,0 l/m 2,9 km/h (1 Bft) N-NO 15 0 min 0 W/m 17,8 C 21,2 C 9,7 km/h (2 Bft)
31.05.2018 22:30 21,1 C 81 % 1013,5 hPa 0,0 l/m 3,6 km/h (1 Bft) O 85 0 min 0 W/m 17,7 C 21,1 C 11,3 km/h (2 Bft)
31.05.2018 22:33 21,1 C 81 % 1013,5 hPa 0,0 l/m 2,0 km/h (1 Bft) O 96 0 min 0 W/m 17,7 C 21,1 C 4,8 km/h (1 Bft)
31.05.2018 22:36 21,1 C 81 % 1013,5 hPa 0,0 l/m 3,4 km/h (1 Bft) O-NO 65 0 min 0 W/m 17,7 C 21,1 C 9,7 km/h (2 Bft)
31.05.2018 22:39 21,1 C 81 % 1013,5 hPa 0,0 l/m 2,9 km/h (1 Bft) NO 42 0 min 0 W/m 17,7 C 21,1 C 8,0 km/h (2 Bft)
31.05.2018 22:42 21,1 C 81 % 1013,5 hPa 0,0 l/m 1,7 km/h (1 Bft) NO 43 0 min 0 W/m 17,7 C 21,1 C 4,8 km/h (1 Bft)
31.05.2018 22:45 20,9 C 81 % 1013,5 hPa 0,0 l/m 2,9 km/h (1 Bft) NO 44 0 min 0 W/m 17,5 C 20,9 C 8,0 km/h (2 Bft)
31.05.2018 22:48 20,8 C 81 % 1013,6 hPa 0,0 l/m 3,3 km/h (1 Bft) O-SO 114 0 min 0 W/m 17,4 C 20,8 C 11,3 km/h (2 Bft)
31.05.2018 22:51 20,8 C 82 % 1013,6 hPa 0,0 l/m 2,2 km/h (1 Bft) NO 47 0 min 0 W/m 17,6 C 20,8 C 4,8 km/h (1 Bft)
31.05.2018 22:54 20,8 C 82 % 1013,6 hPa 0,0 l/m 5,1 km/h (1 Bft) O 82 0 min 0 W/m 17,6 C 20,8 C 11,3 km/h (2 Bft)
31.05.2018 22:57 20,8 C 82 % 1013,6 hPa 0,0 l/m 2,5 km/h (1 Bft) NO 41 0 min 0 W/m 17,6 C 20,8 C 6,4 km/h (2 Bft)
31.05.2018 23:00 20,7 C 82 % 1013,5 hPa 0,0 l/m 3,7 km/h (1 Bft) N-NO 29 0 min 0 W/m 17,5 C 20,7 C 9,7 km/h (2 Bft)
31.05.2018 23:03 20,7 C 83 % 1013,5 hPa 0,0 l/m 3,5 km/h (1 Bft) O-NO 63 0 min 0 W/m 17,7 C 20,7 C 8,0 km/h (2 Bft)
31.05.2018 23:06 20,7 C 83 % 1013,6 hPa 0,0 l/m 2,9 km/h (1 Bft) NO 54 0 min 0 W/m 17,7 C 20,7 C 8,0 km/h (2 Bft)
31.05.2018 23:09 20,6 C 82 % 1013,5 hPa 0,0 l/m 4,6 km/h (1 Bft) NO 52 0 min 0 W/m 17,4 C 20,6 C 9,7 km/h (2 Bft)
31.05.2018 23:12 20,6 C 82 % 1013,5 hPa 0,0 l/m 3,6 km/h (1 Bft) N-NO 19 0 min 0 W/m 17,4 C 20,6 C 12,9 km/h (3 Bft)
31.05.2018 23:15 20,4 C 82 % 1013,5 hPa 0,0 l/m 5,5 km/h (2 Bft) SO 130 0 min 0 W/m 17,2 C 20,4 C 14,5 km/h (3 Bft)
31.05.2018 23:18 20,4 C 83 % 1013,6 hPa 0,0 l/m 3,5 km/h (1 Bft) NO 37 0 min 0 W/m 17,4 C 20,4 C 8,0 km/h (2 Bft)
31.05.2018 23:21 20,4 C 82 % 1013,6 hPa 0,0 l/m 2,9 km/h (1 Bft) NO 36 0 min 0 W/m 17,2 C 20,4 C 6,4 km/h (2 Bft)
31.05.2018 23:24 20,3 C 83 % 1013,7 hPa 0,0 l/m 2,8 km/h (1 Bft) O-NO 68 0 min 0 W/m 17,3 C 20,3 C 6,4 km/h (2 Bft)
31.05.2018 23:27 20,3 C 83 % 1013,6 hPa 0,0 l/m 3,4 km/h (1 Bft) NO 45 0 min 0 W/m 17,3 C 20,3 C 14,5 km/h (3 Bft)
31.05.2018 23:30 20,2 C 83 % 1013,6 hPa 0,0 l/m 1,6 km/h (1 Bft) NW 313 0 min 0 W/m 17,2 C 20,2 C 4,8 km/h (1 Bft)
31.05.2018 23:33 20,2 C 83 % 1013,7 hPa 0,0 l/m 4,1 km/h (1 Bft) NO 54 0 min 0 W/m 17,2 C 20,2 C 12,9 km/h (3 Bft)
31.05.2018 23:36 20,2 C 83 % 1013,7 hPa 0,0 l/m 2,0 km/h (1 Bft) NW 311 0 min 0 W/m 17,2 C 20,2 C 4,8 km/h (1 Bft)
31.05.2018 23:39 20,2 C 83 % 1013,8 hPa 0,0 l/m 2,9 km/h (1 Bft) NO 48 0 min 0 W/m 17,2 C 20,2 C 6,4 km/h (2 Bft)
31.05.2018 23:42 20,2 C 82 % 1013,8 hPa 0,0 l/m 3,0 km/h (1 Bft) O-SO 105 0 min 0 W/m 17,0 C 20,2 C 12,9 km/h (3 Bft)
31.05.2018 23:45 20,1 C 82 % 1013,7 hPa 0,0 l/m 3,4 km/h (1 Bft) O-SO 119 0 min 0 W/m 16,9 C 20,1 C 8,0 km/h (2 Bft)
31.05.2018 23:48 20,1 C 82 % 1013,7 hPa 0,0 l/m 3,6 km/h (1 Bft) N-NO 13 0 min 0 W/m 16,9 C 20,1 C 8,0 km/h (2 Bft)
31.05.2018 23:51 20,0 C 82 % 1013,7 hPa 0,0 l/m 3,3 km/h (1 Bft) N-NO 31 0 min 0 W/m 16,8 C 20,0 C 8,0 km/h (2 Bft)
31.05.2018 23:54 20,0 C 82 % 1013,7 hPa 0,0 l/m 3,3 km/h (1 Bft) O 92 0 min 0 W/m 16,8 C 20,0 C 11,3 km/h (2 Bft)
31.05.2018 23:57 19,9 C 82 % 1013,8 hPa 0,0 l/m 3,1 km/h (1 Bft) O-NO 78 0 min 0 W/m 16,7 C 19,9 C 8,0 km/h (2 Bft)
_ Min-Zeit 05:30 16:27 18:06 - 00:03 - - - - 07:48 05:30 00:03
Minimum _ 17,3 C 50 % 1012,8 hPa - 0,0 km/h (0 Bft) - - - - 16,7 C 17,3 C 0,0 km/h (0 Bft)
_ Max-Zeit 16:51 03:30 10:48 00:00 17:42 - - 08:15 14:03 18:18 16:24 18:39
Maximum _ 30,0 C 97 % 1014,6 hPa 0,0 l/m 7,6 km/h
W-NW (2 Bft)
- - 3 min 786 W/m 21,3 C 29,9 C 22,5 km/h
O-NO (4 Bft)
Durchschnitt _ 22,7 C 79 % 1013,6 hPa #0,0 l/m 3,0 km/h (1 Bft) NO - #10:21 h 391 W/m 18,5 C 22,7 C 7,7 km/h (2 Bft)
2018 Cux-Wetter.de -Die Nutzung der Wetterdaten nur mit ausdrcklicher Genehmigung